                ,  0.290,  0.386,  0.483,  0.580,  0.676,  0.773,  0.869,  0.966,  1.063,  1.159,  1.256,  1.352,  1.449,  1.545,  1.642,  1.739,  1.835,  1.932,  2.028,  2.125,  2.222,  2.318,  2.415,  2.511,  2.608,  2.705,  2.801,  2.898,  2.994,  3.091,  3.188,  3.284,  3.381,  3.477,  3.574,  3.671,  3.767,  3.864,  3.960,  4.057,  4.153,  4.250,  4.347,  4.443,  4.540,  4.636,  4.733,  4.830,  4.926,  5.023,  5.119,  5.216,  5.313,  5.409,  5.506,  5.602,  5.699,  5.796
2000/11/07 00:00,  999.0,   -2.0,   -2.4,   -3.1,    1.4,  999.0,    3.1,    2.7,    0.6,  999.0,   -3.2,  999.0,    0.7,  999.0,  999.0,  999.0,  999.0,    6.1,  999.0,    7.6,  999.0,  999.0,  999.0,  999.0,  999.0,  999.0,  999.0,  999.0,  999.0,  999.0,  999.0,  999.0,  999.0,  999.0,  999.0,  999.0,  999.0,  999.0,  999.0,  999.0,  999.0,  999.0,  999.0,  999.0,  999.0,  999.0,  999.0,  999.0,  999.0,  999.0,  999.0,  999.0,  999.0,  999.0,  999.0,  999.0,  999.0,  999.0
2000/11/07 00:10,  999.0,  999.0,  999.0,  999.0,   -1.0,   -1.3,    0.2,    0.6,    0.9,   -8.6,  999.0,    3.9,  999.0,    2.8,    1.5,    1.6,  999.0,    0.1,    9.0,    4.1,    3.5,    2.1,  999.0,   -3.0,  999.0,  999.0,  999.0,  999.0,  999.0,  999.0,  999.0,  999.0,  999.0,  999.0,  999.0,  999.0,  999.0,  999.0,  999.0,  999.0,  999.0,  999.0,  999.0,  999.0,  999.0,  999.0,  999.0,  999.0,  999.0,  999.0,  999.0,  999.0,  999.0,  999.0,  999.0,  999.0,  999.0,  999.0
2000/11/07 00:20,  999.0,   -3.1,    7.7,    4.1,    0.1,    0.3,    1.4,   -2.2,    1.6,    0.2,    4.8,    1.7,   -1.7,    3.1,    0.0,    1.4,  999.0,  999.0,    3.3,    3.7,  999.0,   -1.6,  999.0,    0.7,    0.6,  999.0,  999.0,  999.0,  999.0,  999.0,  999.0,  999.0,  999.0,  999.0,  999.0,  999.0,  999.0,  999.0,  999.0,  999.0,  999.0,  999.0,  999.0,  999.0,  999.0,  999.0,  999.0,  999.0,  999.0,  999.0,  999.0,  999.0,  999.0,  999.0,  999.0,  999.0,  999.0,  999.0
2000/11/07 00:30,  999.0,  999.0,    0.4,   -3.7,  999.0,    0.8,    2.7,    4.9,    4.0,    0.3,    4.8,   -2.9,   -3.4,    0.4,  999.0,    1.4,  999.0,   -0.1,    1.8,    1.5,  999.0,  999.0,  999.0,  999.0,  999.0,  999.0,  999.0,  999.0,  999.0,  999.0,  999.0,  999.0,  999.0,  999.0,  999.0,  999.0,  999.0,  999.0,  999.0,  999.0,  999.0,  999.0,  999.0,  999.0,  999.0,  999.0,  999.0,  999.0,  999.0,  999.0,  999.0,  999.0,  999.0,  999.0,  999.0,  999.0,  999.0,  999.0
2000/11/07 00:40,  999.0,   -0.2,   -2.5,   -2.4,   -1.0,    4.6,  999.0,  999.0,    1.0,   -3.6,    4.2,    0.8,    4.4,    5.2,    3.3,    3.7,  999.0,  999.0,  999.0,  999.0,  999.0,  999.0,  999.0,  999.0,  999.0,  999.0,  999.0,  999.0,  999.0,  999.0,  999.0,  999.0,  999.0,  999.0,  999.0,  999.0,  999.0,  999.0,  999.0,  999.0,  999.0,  999.0,  999.0,  999.0,  999.0,  999.0,  999.0,  999.0,  999.0,  999.0,  999.0,  999.0,  999.0,  999.0,  999.0,  999.0,  999.0,  999.0
2000/11/07 00:50,  999.0,  999.0,   -4.2,   -4.5,   -5.2,    2.7,    5.2,   -1.9,  999.0,    0.1,  999.0,    3.4,  999.0,    5.4,  999.0,    2.2,  999.0,  999.0,  999.0,  999.0,  999.0,  999.0,  999.0,  999.0,  999.0,  999.0,  999.0,  999.0,  999.0,  999.0,  999.0,  999.0,  999.0,  999.0,  999.0,  999.0,  999.0,  999.0,  999.0,  999.0,  999.0,  999.0,  999.0,  999.0,  999.0,  999.0,  999.0,  999.0,  999.0,  999.0,  999.0,  999.0,  999.0,  999.0,  999.0,  999.0,  999.0,  999.0
2000/11/07 01:00,  999.0,   -4.6,    3.4,    0.5,   -0.7,    2.4,    5.6,    1.8,  999.0,  999.0,  999.0,    3.1,    6.3,    5.6,    5.2,    1.4,  999.0,  999.0,  999.0,  999.0,    1.9,    2.8,    0.1,  999.0,  999.0,  999.0,  999.0,  999.0,  999.0,  999.0,  999.0,  999.0,  999.0,  999.0,  999.0,  999.0,  999.0,  999.0,  999.0,  999.0,  999.0,  999.0,  999.0,  999.0,  999.0,  999.0,  999.0,  999.0,  999.0,  999.0,  999.0,  999.0,  999.0,  999.0,  999.0,  999.0,  999.0,  999.0
2000/11/07 01:10,  999.0,    0.2,   -0.9,    1.8,   -1.0,   -2.7,    4.8,    9.1,    2.8,   -0.1,    0.9,    4.2,    2.3,  999.0,  999.0,  999.0,  999.0,  999.0,  999.0,  999.0,  999.0,  999.0,  999.0,  999.0,  999.0,  999.0,  999.0,  999.0,  999.0,  999.0,  999.0,  999.0,  999.0,  999.0,  999.0,  999.0,  999.0,  999.0,  999.0,  999.0,  999.0,  999.0,  999.0,  999.0,  999.0,  999.0,  999.0,  999.0,  999.0,  999.0,  999.0,  999.0,  999.0,  999.0,  999.0,  999.0,  999.0,  999.0
2000/11/07 01:20,  999.0,   -4.5,    1.8,    1.8,   -2.2,    0.6,    8.4,    8.6,    7.1,   -2.8,    4.7,    5.5,  999.0,  999.0,  999.0,    0.9,  999.0,  999.0,  999.0,  999.0,  999.0,  999.0,  999.0,  999.0,  999.0,  999.0,  999.0,  999.0,  999.0,  999.0,  999.0,  999.0,  999.0,  999.0,  999.0,  999.0,  999.0,  999.0,  999.0,  999.0,  999.0,  999.0,  999.0,  999.0,  999.0,  999.0,  999.0,  999.0,  999.0,  999.0,  999.0,  999.0,  999.0,  999.0,  999.0,  999.0,  999.0,  999.0
2000/11/07 01:30,  999.0,   -1.9,  999.0,   -0.3,    2.5,    2.0,    2.7,    1.9,   13.8,   -2.9,    1.1,   -4.4,    1.4,    7.0,  999.0,  999.0,  999.0,  999.0,  999.0,  999.0,  999.0,  999.0,   -0.9,   -1.0,  999.0,  999.0,  999.0,  999.0,  999.0,  999.0,  999.0,  999.0,  999.0,  999.0,  999.0,  999.0,  999.0,  999.0,  999.0,  999.0,  999.0,  999.0,  999.0,  999.0,  999.0,  999.0,  999.0,  999.0,  999.0,  999.0,  999.0,  999.0,  999.0,  999.0,  999.0,  999.0,  999.0,  999.0
2000/11/07 01:40,  999.0,   -1.0,    1.0,    0.1,    0.2,    1.7,    2.9,  999.0,   -0.9,   -3.5,    4.0,    6.1,    1.0,    0.9,  999.0,    0.0,  999.0,  999.0,  999.0,  999.0,  999.0,  999.0,  999.0,  999.0,  999.0,  999.0,  999.0,  999.0,  999.0,  999.0,  999.0,  999.0,  999.0,  999.0,  999.0,  999.0,  999.0,  999.0,  999.0,  999.0,  999.0,  999.0,  999.0,  999.0,  999.0,  999.0,  999.0,  999.0,  999.0,  999.0,  999.0,  999.0,  999.0,  999.0,  999.0,  999.0,  999.0,  999.0
2000/11/07 01:50,  999.0,  999.0,  999.0,    0.6,  999.0,   -2.7,    2.2,  999.0,    0.2,   -3.1,  999.0,   -0.7,   -1.9,    0.9,  999.0,  999.0,  999.0,  999.0,  999.0,  999.0,  999.0,  999.0,  999.0,  999.0,  999.0,  999.0,  999.0,  -18.3,  999.0,  999.0,  999.0,  999.0,  999.0,  999.0,  999.0,  999.0,  999.0,  999.0,  -12.2,  999.0,  999.0,  999.0,  999.0,  999.0,  999.0,  999.0,  999.0,  999.0,  999.0,  999.0,  999.0,  999.0,  999.0,  999.0,  999.0,   -3.2,  999.0,  999.0
2000/11/07 02:00,  999.0,    1.1,  999.0,  999.0,   -1.6,   -5.8,    3.6,   -3.2,   -8.6,   -5.2,   -1.9,   -3.6,  999.0,   -1.9,  999.0,  999.0,   -1.3,  999.0,  999.0,  999.0,  999.0,   -2.4,   -4.0,  999.0,  999.0,  999.0,  999.0,  999.0,  999.0,  999.0,  999.0,  -15.3,  999.0,  -13.4,  999.0,  -12.1,  -11.5,  -10.6,  999.0,  999.0,  999.0,   -7.6,  999.0,  999.0,  999.0,  999.0,   -3.0,  999.0,  999.0,   -0.7,  999.0,   -0.4,  999.0,  999.0,  999.0,   -0.7,  999.0,  999.0
2000/11/07 02:10,  999.0,   -1.5,    0.1,    1.1,    2.9,  999.0,  999.0,  999.0,  999.0,   -0.8,   -2.1,   -4.9,   -1.8,   -3.8,  999.0,  999.0,  999.0,  999.0,  999.0,  999.0,  999.0,  999.0,  999.0,  999.0,  999.0,  999.0,  -17.5,  -17.1,  999.0,  -10.8,  -10.0,  -13.2,  -10.0,   -9.1,  999.0,  999.0,   -6.2,   -4.7,   -4.8,  999.0,   -3.6,   -3.1,  999.0,  999.0,  999.0,    0.2,   -0.1,  999.0,   -0.6,   -0.8,  999.0,   -0.8,   -0.5,  999.0,  999.0,   -0.4,  999.0,   -1.0
2000/11/07 02:20,  999.0,  999.0,  999.0,  999.0,   -0.1,    0.1,    3.1,    0.3,  999.0,   -1.1,    1.0,    1.1,   -0.0,  999.0,  999.0,  999.0,  999.0,  999.0,  999.0,  999.0,  999.0,  999.0,  -15.5,  999.0,  999.0,  -15.4,  -17.6,  -10.4,  -12.4,  -10.1,   -9.0,   -9.5,   -8.2,   -6.5,   -5.6,   -1.7,  999.0,   -5.6,   -3.6,  999.0,  999.0,   -5.2,   -5.1,   -1.6,   -2.0,   -0.5,   -1.9,   -0.9,   -0.7,  999.0,   -0.9,   -0.5,   -0.6,   -1.1,   -1.4,   -1.0,  999.0,   -0.7
2000/11/07 02:30,  999.0,  999.0,  999.0,  999.0,  999.0,  999.0,  999.0,  999.0,  999.0,  999.0,  999.0,  999.0,  999.0,  999.0,  999.0,  999.0,  999.0,    2.1,  999.0,  999.0,  999.0,  -17.7,  -18.3,  -16.5,  -15.4,  -12.9,  -13.4,  -12.1,  -11.0,   -9.8,   -9.0,   -7.5,   -7.1,   -6.0,   -5.0,   -4.0,   -2.6,   -2.9,   -1.9,   -0.8,   -0.7,   -0.0,   -0.5,   -1.4,   -1.2,   -1.4,   -0.6,   -0.5,   -0.8,  999.0,   -0.3,   -0.7,   -0.9,   -1.8,   -1.4,   -0.4,   -1.3,   -0.8
2000/11/07 02:40,  999.0,   -1.6,  999.0,   -0.8,    0.5,    0.3,    0.2,    4.2,    5.1,  999.0,    4.2,  999.0,  999.0,  999.0,  999.0,  999.0,  999.0,  999.0,  999.0,  999.0,  999.0,  999.0,  999.0,  999.0,  999.0,  999.0,  999.0,  999.0,  999.0,  999.0,  999.0,  999.0,  999.0,  999.0,  999.0,  999.0,  999.0,  999.0,  999.0,  999.0,  999.0,  999.0,  999.0,  999.0,  999.0,  999.0,  999.0,  999.0,  999.0,  999.0,  999.0,  999.0,  999.0,  999.0,  999.0,  999.0,  999.0,  999.0
2000/11/07 02:50,  999.0,  999.0,   -3.1,   -0.6,    2.9,    1.4,   -2.5,  999.0,    6.2,   -0.6,  999.0,    4.2,  999.0,  999.0,  999.0,  999.0,  999.0,  999.0,  999.0,  999.0,  999.0,  999.0,  999.0,  999.0,  999.0,  999.0,  999.0,  999.0,  999.0,  999.0,  999.0,  999.0,  999.0,  999.0,  999.0,  999.0,  999.0,  999.0,  999.0,  999.0,  999.0,  999.0,  999.0,  999.0,  999.0,  999.0,  999.0,  999.0,  999.0,  999.0,  999.0,  999.0,  999.0,  999.0,  999.0,  999.0,  999.0,  999.0
2000/11/07 03:00,  999.0,   -1.5,   -1.4,   -0.7,    2.3,    1.4,    0.5,    1.0,   -1.6,    3.3,    5.2,  999.0,  999.0,  999.0,  999.0,  999.0,  999.0,  999.0,  999.0,  999.0,  999.0,  999.0,  999.0,  999.0,  999.0,  999.0,  999.0,  999.0,  999.0,  999.0,  999.0,   34.2,  999.0,   38.7,  999.0,  999.0,  999.0,  999.0,  999.0,  999.0,  999.0,  999.0,  999.0,  999.0,  999.0,  999.0,  999.0,  999.0,  999.0,  999.0,  999.0,  999.0,  999.0,  999.0,   42.7,  999.0,   41.7,  999.0
2000/11/07 03:10,  999.0,   -0.9,    0.6,   -3.0,   -5.3,   -2.3,    1.9,    2.2,    4.2,    1.9,    2.3,    1.5,  999.0,  999.0,  999.0,  999.0,   -3.8,  999.0,  999.0,   -3.0,   -1.7,  999.0,  999.0,  999.0,  999.0,  999.0,  999.0,  999.0,  999.0,  999.0,  999.0,  999.0,  999.0,   34.9,  999.0,   37.6,  999.0,  999.0,  999.0,  999.0,  999.0,   42.0,  999.0,  999.0,  999.0,  999.0,  999.0,   42.5,  999.0,  999.0,  999.0,  999.0,  999.0,   42.0,   42.1,  999.0,  999.0,  999.0
2000/11/07 03:20,  999.0,  999.0,  999.0,  999.0,   -0.1,  999.0,    2.4,    4.3,    5.6,    0.8,  999.0,  999.0,  999.0,  999.0,  999.0,  999.0,   -2.7,   -1.8,  999.0,  999.0,  999.0,  999.0,  999.0,  999.0,  999.0,  999.0,   30.2,  999.0,   31.1,   33.0,  999.0,   35.8,  999.0,  999.0,   39.5,  999.0,   41.4,  999.0,  999.0,  999.0,  999.0,   41.8,  999.0,  999.0,  999.0,   42.9,  999.0,   42.3,  999.0,  999.0,   42.0,  999.0,   41.9,   41.2,   41.4,   41.3,   42.0,  999.0
2000/11/07 03:30,  999.0,   -2.4,   -1.9,   -1.4,   -0.2,  999.0,    1.8,    0.5,    3.0,  999.0,    2.1,   -0.2,  999.0,   -3.9,  999.0,  999.0,  999.0,  999.0,  999.0,  999.0,  999.0,  999.0,  999.0,  999.0,  999.0,  999.0,  999.0,   32.8,   33.0,   34.4,  999.0,   36.1,  999.0,  999.0,  999.0,   39.9,   40.8,  999.0,   41.3,  999.0,  999.0,   42.0,   41.9,  999.0,   42.6,   41.8,  999.0,  999.0,   41.0,  999.0,  999.0,   41.5,   41.9,   42.0,   41.8,  999.0,   41.5,  999.0
2000/11/07 03:40,  999.0,  999.0,  999.0,   -2.2,   -0.5,    0.3,    3.1,    0.2,   -2.0,    2.9,    1.4,    1.9,   -0.4,   -2.4,  999.0,  999.0,  999.0,  999.0,  999.0,  999.0,  999.0,  999.0,  999.0,  999.0,  999.0,  999.0,  999.0,  999.0,  999.0,  999.0,  999.0,  999.0,  999.0,  999.0,  999.0,  999.0,  999.0,  999.0,  999.0,  999.0,  999.0,  999.0,  999.0,  999.0,  999.0,   41.6,  999.0,  999.0,  999.0,  999.0,  999.0,  999.0,  999.0,   41.9,   41.0,   41.5,   41.7,   41.5
2000/11/07 03:50,  999.0,   -5.5,  999.0,    0.5,   -0.2,    4.6,    5.4,    0.3,    0.7,  999.0,  999.0,   -1.3,   -1.3,   -1.8,  999.0,   -0.2,  999.0,  999.0,  999.0,  999.0,  999.0,  999.0,  999.0,  999.0,  999.0,  999.0,  999.0,    8.3,  999.0,  999.0,  999.0,  999.0,  999.0,  999.0,  999.0,  999.0,  999.0,  999.0,  999.0,  999.0,  999.0,  999.0,  999.0,  999.0,  999.0,  999.0,  999.0,   17.7,  999.0,  999.0,  999.0,   17.5,  999.0,  999.0,  999.0,   17.6,  999.0,  999.0
2000/11/07 04:00,  999.0,  999.0,  999.0,   -2.2,   -0.0,    0.1,    0.8,  999.0,  999.0,  999.0,    0.8,   -0.4,  999.0,  999.0,  999.0,  999.0,  999.0,  999.0,  999.0,  999.0,  999.0,  999.0,    4.1,  999.0,  999.0,  999.0,  999.0,  999.0,  999.0,  999.0,  999.0,  999.0,  999.0,  999.0,  999.0,  999.0,  999.0,  999.0,  999.0,  999.0,  999.0,  999.0,  999.0,   17.7,  999.0,  999.0,  999.0,  999.0,  999.0,  999.0,  999.0,   17.1,  999.0,  999.0,  999.0,  999.0,   17.8,  999.0
2000/11/07 04:10,  999.0,  999.0,   -2.1,  999.0,   -0.9,   -1.1,    0.6,    2.4,    5.3,    1.1,   -4.4,   -3.6,   -0.6,   -2.3,  999.0,  999.0,  999.0,  999.0,    2.6,  999.0,  999.0,  999.0,  999.0,  999.0,  999.0,  999.0,  999.0,  999.0,  999.0,  999.0,  999.0,  999.0,  999.0,  999.0,  999.0,  999.0,  999.0,  999.0,  999.0,   17.9,  999.0,  999.0,  999.0,  999.0,  999.0,  999.0,  999.0,  999.0,  999.0,  999.0,  999.0,  999.0,  999.0,  999.0,  999.0,  999.0,  999.0,  999.0
2000/11/07 04:20,  999.0,   -0.4,   -0.1,  999.0,    0.2,   -2.2,   -0.4,   -0.8,    3.0,    6.3,    0.1,   -1.1,   -1.2,  999.0,  999.0,  999.0,  999.0,    0.2,  999.0,  999.0,  999.0,  999.0,  999.0,  999.0,  999.0,  999.0,  999.0,  999.0,  999.0,  999.0,  999.0,  999.0,  999.0,  999.0,  999.0,  999.0,  999.0,  999.0,  999.0,  999.0,   19.7,  999.0,  999.0,  999.0,  999.0,  999.0,  999.0,  999.0,  999.0,  999.0,  999.0,  999.0,  999.0,  999.0,  999.0,  999.0,  999.0,  999.0
2000/11/07 04:30,  999.0,    4.2,  999.0,    0.9,    0.9,    2.0,    1.3,   -1.6,    0.1,   -1.7,   -3.0,   -1.1,   -0.2,  999.0,  999.0,  999.0,  999.0,  999.0,  999.0,  999.0,  999.0,  999.0,  999.0,  999.0,  999.0,  999.0,  999.0,  999.0,  999.0,  999.0,  999.0,  999.0,  999.0,  999.0,  999.0,  999.0,  999.0,  999.0,  999.0,  999.0,  999.0,  999.0,  999.0,  999.0,  999.0,  999.0,  999.0,  999.0,  999.0,   43.1,  999.0,  999.0,  999.0,  999.0,  999.0,  999.0,  999.0,  999.0
2000/11/07 04:40,  999.0,   -0.2,  999.0,    2.0,   -2.6,   -0.5,    3.2,  999.0,   -1.5,    0.5,  999.0,  999.0,  999.0,  999.0,  999.0,  999.0,  999.0,  999.0,  999.0,  999.0,  999.0,  999.0,  999.0,  999.0,  999.0,  999.0,  999.0,  999.0,  999.0,  999.0,  999.0,  999.0,  999.0,  999.0,  999.0,  999.0,  999.0,  999.0,  999.0,  999.0,  999.0,  999.0,  999.0,  999.0,   41.9,  999.0,  999.0,  999.0,  999.0,   41.6,  999.0,  999.0,  999.0,  999.0,  999.0,  999.0,  999.0,  999.0
2000/11/07 04:50,  999.0,    0.9,   -0.6,    0.8,   -0.1,    1.3,    1.3,    1.2,    2.5,    2.3,    2.1,  999.0,  999.0,  999.0,  999.0,  999.0,  999.0,  999.0,  999.0,  999.0,  999.0,  999.0,  999.0,  999.0,  999.0,  999.0,  999.0,  999.0,  999.0,  999.0,  999.0,  999.0,  999.0,  999.0,  999.0,  999.0,  999.0,  999.0,  999.0,  999.0,  999.0,  999.0,  999.0,  999.0,  999.0,  999.0,  999.0,  999.0,   41.2,   41.4,   41.5,   41.4,  999.0,  999.0,  999.0,   41.9,  999.0,  999.0
2000/11/07 05:00,  999.0,   -1.5,   -2.2,   -2.5,   -3.1,   -1.1,    1.8,  999.0,  999.0,  999.0,  999.0,  999.0,  999.0,  999.0,  999.0,  999.0,  999.0,  999.0,  999.0,  999.0,  999.0,  999.0,  999.0,  999.0,  999.0,  999.0,  999.0,  999.0,  999.0,  999.0,  999.0,  999.0,  999.0,   39.4,   40.0,  999.0,  999.0,  999.0,  999.0,   42.4,  999.0,  999.0,   41.6,  999.0,   41.5,   41.2,   40.4,   41.2,   42.0,   41.8,  999.0,   41.8,   41.9,   41.6,  999.0,   41.7,   41.6,  999.0
2000/11/07 05:10,  999.0,   -0.6,   -2.0,   -1.6,   -1.1,    1.2,  999.0,    4.4,  999.0,  999.0,    0.1,   -0.2,  999.0,  999.0,  999.0,  999.0,  999.0,  999.0,  999.0,  999.0,  999.0,  999.0,  999.0,  999.0,  999.0,  999.0,  999.0,   34.7,  999.0,  999.0,  999.0,  999.0,  999.0,   40.7,   41.2,  999.0,  999.0,  999.0,  999.0,   42.1,  999.0,   41.9,  999.0,   41.8,   42.0,   42.1,  999.0,   41.7,   41.5,   41.1,   41.8,   41.9,   42.0,   41.8,   41.1,   41.9,   41.9,  999.0
2000/11/07 05:20,  999.0,   -1.8,   -1.5,   -0.3,    0.1,   -0.4,    6.6,  999.0,  999.0,   -0.1,  999.0,  999.0,  999.0,  999.0,  999.0,  999.0,  999.0,  999.0,  999.0,  999.0,  999.0,  999.0,  999.0,  999.0,  999.0,  999.0,  999.0,  999.0,  999.0,  999.0,  999.0,   37.2,  999.0,   40.4,   40.8,  999.0,  999.0,   41.8,  999.0,   42.0,  999.0,   42.0,   41.8,  999.0,   41.7,   42.2,  999.0,   41.4,   41.5,   41.9,   41.5,   42.5,  999.0,   41.2,   41.9,   41.5,   42.2,  999.0
2000/11/07 05:30,  999.0,  999.0,  999.0,    1.1,   -1.6,    0.2,   -0.3,    0.1,   -0.4,   -0.1,   -1.3,  999.0,  999.0,  999.0,  999.0,  999.0,  999.0,  999.0,  999.0,  999.0,  999.0,  999.0,  999.0,  999.0,  999.0,  999.0,  999.0,  999.0,  999.0,  999.0,  999.0,   38.6,   39.8,  999.0,   40.8,  999.0,  999.0,   40.8,   41.7,  999.0,  999.0,   41.5,   41.6,   41.5,   41.8,   41.9,   41.8,   42.2,   41.4,   41.9,  999.0,   41.9,  999.0,   41.4,   41.2,   42.1,   41.6,   41.8
2000/11/07 05:40,  999.0,  999.0,  999.0,  999.0,  999.0,   -0.1,   -0.3,   -0.9,    0.2,    0.7,   -1.7,  999.0,  999.0,  999.0,  999.0,  999.0,  999.0,  999.0,  999.0,  999.0,  999.0,  999.0,  999.0,  999.0,  999.0,  999.0,  999.0,  999.0,  999.0,  999.0,  999.0,  999.0,   38.3,  999.0,   37.4,   37.4,   38.7,   40.5,  999.0,   42.2,  999.0,  999.0,   42.0,  999.0,   41.9,  999.0,   42.6,  999.0,   42.0,   42.1,   41.5,   42.3,  999.0,   41.6,  999.0,  999.0,  999.0,   41.4
2000/11/07 05:50,  999.0,  999.0,  999.0,   -5.6,  999.0,    0.6,    0.2,    0.4,    0.8,    0.7,   -0.3,   -3.0,  999.0,   -3.0,  999.0,  999.0,  999.0,  999.0,  999.0,  999.0,  999.0,  999.0,  999.0,  999.0,  999.0,  999.0,  999.0,  999.0,  999.0,  999.0,  999.0,  999.0,  999.0,  999.0,   36.2,  999.0,   36.1,   36.7,  999.0,  999.0,  999.0,  999.0,   41.5,   42.1,   42.1,  999.0,   40.6,   41.1,   42.1,   41.6,   41.4,   41.4,  999.0,   42.5,   40.8,  999.0,   42.9,  999.0
2000/11/07 06:00,  999.0,   -1.8,   -2.1,   -1.0,   -5.3,    1.0,   -0.5,    1.0,  999.0,  999.0,  999.0,  999.0,  999.0,  999.0,  999.0,  999.0,  999.0,  999.0,  999.0,  999.0,  999.0,  999.0,  999.0,  999.0,  999.0,  999.0,  999.0,  999.0,  999.0,  999.0,   32.9,  999.0,  999.0,   36.8,   40.1,   36.8,  999.0,  999.0,   39.1,  999.0,   40.4,  999.0,   41.5,  999.0,   41.5,   42.0,   40.5,   41.3,   42.3,   41.7,   42.0,   42.5,   41.5,   42.6,   41.8,   42.6,  999.0,  999.0
2000/11/07 06:10,  999.0,  999.0,    1.2,   -1.3,    2.9,    3.4,   -0.3,   -0.7,    0.3,   -0.7,  999.0,   -0.1,  999.0,   -4.7,  999.0,  999.0,  999.0,  999.0,  999.0,  999.0,  999.0,  999.0,  999.0,  999.0,  999.0,  999.0,  999.0,  999.0,  999.0,  999.0,  999.0,  999.0,  999.0,  999.0,  999.0,  999.0,  999.0,  999.0,  999.0,  999.0,  999.0,   37.1,  999.0,  999.0,  999.0,  999.0,  999.0,  999.0,  999.0,   42.0,   41.7,  999.0,   42.2,   42.7,  999.0,   41.4,  999.0,  999.0
2000/11/07 06:20,  999.0,    0.3,  999.0,  999.0,  999.0,  999.0,    0.2,   -0.4,    0.4,   -0.5,  999.0,  999.0,  999.0,  999.0,  999.0,  999.0,  999.0,  999.0,  999.0,  999.0,  999.0,  999.0,  999.0,  999.0,  999.0,  999.0,   29.9,   29.4,   31.5,  999.0,   32.2,   32.5,   37.2,   35.5,   35.2,   35.2,   39.0,   39.4,   38.8,   38.2,  999.0,   39.3,  999.0,   41.6,   42.2,   41.9,   41.7,  999.0,   41.9,   42.5,   41.7,   41.7,   41.8,   42.0,   41.4,   41.9,   42.0,   42.7
2000/11/07 06:30,  999.0,  999.0,  999.0,  999.0,    1.0,   -1.1,    4.3,    2.1,    6.8,   -1.6,   -2.3,  999.0,  999.0,  999.0,  999.0,  999.0,  999.0,  999.0,  999.0,  999.0,  999.0,    3.6,  999.0,  999.0,  999.0,  999.0,   27.6,   29.9,   31.1,   31.4,  999.0,   34.7,  999.0,   37.6,   37.5,   38.6,  999.0,  999.0,   42.0,  999.0,   41.7,  999.0,   42.0,   41.8,   42.4,   41.9,  999.0,  999.0,  999.0,   42.2,   41.5,  999.0,  999.0,   41.8,  999.0,  999.0,  999.0,   40.9
2000/11/07 06:40,  999.0,  999.0,   -1.6,   -1.8,   -2.9,  999.0,  999.0,    1.8,    3.1,   -3.8,   -1.6,  999.0,   -2.9,  999.0,  999.0,  999.0,  999.0,  999.0,  999.0,  999.0,  999.0,  999.0,  999.0,  999.0,  999.0,  999.0,   31.1,   32.3,  999.0,   34.8,   35.8,   40.5,   40.8,   40.7,   41.7,  999.0,   41.6,   41.6,  999.0,   41.3,   42.1,   41.7,   42.0,   41.7,   42.3,   41.0,   41.4,   41.5,   42.1,   41.6,   42.2,   40.9,   41.2,   41.4,   41.5,  999.0,   42.1,   41.7
2000/11/07 06:50,  999.0,    2.8,   -0.6,   -3.4,   -3.6,   -0.4,  999.0,  999.0,   -1.6,   -2.8,   -2.6,  999.0,   -3.7,   -3.9,  999.0,   -3.6,  999.0,  999.0,  999.0,  999.0,  999.0,  999.0,  999.0,  999.0,  999.0,  999.0,  999.0,  999.0,  999.0,  999.0,  999.0,  999.0,  999.0,  999.0,  999.0,  999.0,  999.0,  999.0,  999.0,  999.0,  999.0,  999.0,  999.0,  999.0,  999.0,  999.0,  999.0,  999.0,  999.0,  999.0,  999.0,  999.0,  999.0,  999.0,  999.0,  999.0,  999.0,  999.0
2000/11/07 07:00,  999.0,  999.0,   -3.7,   -2.5,    2.0,    1.4,    0.2,   -1.7,   -2.6,   -2.9,  999.0,  999.0,  999.0,  999.0,  999.0,  999.0,  999.0,  999.0,  999.0,  999.0,  999.0,  999.0,  999.0,  999.0,  999.0,  999.0,  999.0,  999.0,  999.0,  999.0,  999.0,  999.0,  999.0,  999.0,  999.0,  999.0,  999.0,  999.0,  999.0,  999.0,  999.0,  999.0,  999.0,  999.0,  999.0,  999.0,  999.0,  999.0,  999.0,  999.0,  999.0,  999.0,  999.0,  999.0,  999.0,  999.0,  999.0,  999.0
2000/11/07 07:10,  999.0,   -3.2,   -3.3,   -3.4,   -0.0,   -1.0,   -0.4,   -0.5,   -1.3,   -1.5,   -2.4,   -3.0,   -3.3,   -0.0,  999.0,  999.0,  999.0,  999.0,  999.0,  999.0,  999.0,   16.7,   15.2,  999.0,   13.4,   13.0,   11.6,   10.3,    9.8,    8.4,    7.5,    6.9,    5.2,  999.0,    3.8,    2.0,    3.3,    1.3,    1.2,  999.0,    0.6,   -0.0,    0.6,    0.8,    0.1,    0.9,    0.9,    0.7,  999.0,  999.0,    0.5,    1.0,    0.6,    0.5,    0.6,    0.6,    0.6,    0.8
2000/11/07 07:20,  999.0,   -3.8,   -3.8,   -2.4,    0.5,    0.3,   -1.0,   -0.9,   -1.7,   -1.3,   -1.6,   -2.1,  999.0,  999.0,  999.0,  999.0,  999.0,  999.0,  999.0,  999.0,  999.0,  999.0,  999.0,   11.9,   11.0,  999.0,  999.0,  999.0,    6.2,  999.0,  999.0,  999.0,  999.0,  999.0,  999.0,    0.4,  999.0,    0.5,  999.0,  999.0,  999.0,  999.0,  999.0,    0.5,  999.0,    0.2,  999.0,    0.5,    0.4,  999.0,  999.0,  999.0,    0.1,  999.0,    1.2,  999.0,  999.0,  999.0
2000/11/07 07:30,  999.0,   -3.0,   -2.7,   -0.3,    0.9,    0.8,   -0.4,   -0.2,   -1.3,   -2.3,   -2.7,  999.0,  999.0,  999.0,  999.0,  999.0,  999.0,  999.0,  999.0,  999.0,  999.0,  999.0,  999.0,  999.0,   28.5,   30.9,   28.0,   31.3,   31.8,  999.0,   31.7,   33.4,  999.0,   37.5,   34.7,   35.6,   35.8,   38.3,   38.7,   38.4,   36.7,  999.0,  999.0,   37.8,   38.5,  999.0,  999.0,   39.3,   39.4,  999.0,   39.7,   40.5,   40.3,  999.0,   40.6,   41.5,  999.0,   42.3
2000/11/07 07:40,  999.0,   -3.0,   -2.2,   -0.3,  999.0,   -0.5,   -0.9,   -0.7,   -0.7,   -1.2,   -1.3,   -1.7,  999.0,  999.0,  999.0,  999.0,  999.0,  999.0,  999.0,  999.0,  999.0,  999.0,  999.0,  999.0,  999.0,  999.0,   29.4,   30.2,   30.9,   32.7,   31.9,   32.2,   34.4,   33.9,   35.3,   35.6,   35.2,   37.3,   38.2,   38.1,   39.4,   38.5,   39.9,   39.5,   40.9,  999.0,   41.6,   41.6,   41.8,  999.0,   41.7,   41.7,   41.6,   41.2,   41.3,   41.3,   41.6,   41.6
2000/11/07 07:50,  999.0,  999.0,   -2.3,   -0.7,    0.2,   -0.2,   -1.0,   -1.4,   -1.9,  999.0,  999.0,    6.4,  999.0,  999.0,  999.0,  999.0,  999.0,   23.4,   23.7,   24.7,   25.9,   27.8,   28.0,   29.0,   30.6,   30.5,   31.0,   32.1,  999.0,   33.7,   36.8,   36.7,   39.3,   37.6,   39.6,   42.3,   39.8,   41.9,   40.7,   40.8,   41.0,  999.0,   41.5,   41.3,   41.8,   41.2,   41.7,   41.5,   41.7,   41.5,   41.7,   42.1,   41.5,   41.8,   41.9,   41.3,   41.8,   42.1
2000/11/07 08:00,  999.0,  999.0,   -2.8,   -0.0,   -0.2,   -0.3,   -0.6,   -0.5,   -1.5,   -4.9,   -1.5,  999.0,  999.0,  999.0,  999.0,  999.0,  999.0,   24.5,  999.0,   25.6,   27.3,   29.5,   29.7,   30.3,   31.3,   34.6,   35.0,   35.8,   37.7,  999.0,   39.0,   39.6,   40.7,   42.3,   42.2,   41.9,   42.0,  999.0,   42.6,   42.1,  999.0,  999.0,   41.9,  999.0,   42.2,   42.1,  999.0,  999.0,   41.8,   41.8,   41.7,  999.0,   41.5,  999.0,   41.5,  999.0,  999.0,   42.3
2000/11/07 08:10,  999.0,  999.0,   -2.8,    0.4,    0.7,   -0.4,   -0.6,   -0.5,   -1.1,   -1.4,   -1.1,   -0.8,  999.0,  999.0,  999.0,  999.0,  999.0,  999.0,  999.0,  999.0,  999.0,  999.0,  999.0,  999.0,  999.0,  999.0,  999.0,  999.0,  999.0,  999.0,  999.0,  999.0,  999.0,  999.0,  999.0,  999.0,  999.0,  999.0,  999.0,  999.0,  999.0,  999.0,  999.0,  999.0,  999.0,  999.0,  999.0,  999.0,  999.0,  999.0,  999.0,  999.0,  999.0,  999.0,  999.0,  999.0,  999.0,  999.0
2000/11/07 08:20,  999.0,   -2.8,   -3.2,   -0.5,    0.1,   -0.7,   -0.1,   -0.7,   -0.9,    0.1,   -0.0,  999.0,  999.0,  999.0,  999.0,  999.0,  999.0,  999.0,  999.0,  999.0,  999.0,  999.0,  999.0,  999.0,  999.0,  999.0,  999.0,  999.0,  999.0,  999.0,  999.0,  999.0,  999.0,  999.0,  999.0,  999.0,  999.0,  999.0,  999.0,  999.0,  999.0,  999.0,  999.0,  999.0,  999.0,  999.0,   -0.9,  999.0,  999.0,  999.0,   -1.0,  999.0,  999.0,   -1.4,   -1.2,   -0.9,   -0.8,   -0.9
2000/11/07 08:30,  999.0,   -2.8,  999.0,   -1.3,    0.0,   -0.6,   -1.8,   -1.7,   -1.9,   -2.1,  999.0,  999.0,  999.0,  999.0,  999.0,  999.0,  999.0,  999.0,  999.0,  999.0,  999.0,  999.0,  999.0,  999.0,  999.0,  999.0,  999.0,  999.0,  999.0,  999.0,  999.0,  999.0,   -0.6,   -0.7,   -0.8,  999.0,  999.0,  999.0,   -0.6,   -0.7,   -0.7,   -1.1,   -1.3,   -1.9,   -0.4,   -0.8,   -0.8,   -0.9,   -0.3,   -0.7,   -0.8,   -0.5,  999.0,   -0.3,   -0.3,   -0.4,   -0.9,   -0.4
2000/11/07 08:40,  999.0,   -3.6,   -4.6,   -1.5,   -0.0,   -0.6,   -0.8,  999.0,   -1.0,   -2.2,   -3.5,  999.0,  999.0,  999.0,  999.0,  999.0,  999.0,  999.0,  999.0,  999.0,  999.0,  999.0,  999.0,  999.0,  999.0,  999.0,  999.0,  999.0,  999.0,  999.0,  999.0,   -0.6,   -0.6,   -0.3,   -0.2,   -0.3,  999.0,  999.0,   -0.6,   -0.5,   -0.8,   -1.0,   -0.3,   -1.0,   -0.2,   -0.5,  999.0,   -0.8,   -1.1,   -1.3,   -1.1,   -0.8,   -0.7,  999.0,   -0.3,   -0.5,  999.0,   -0.7
2000/11/07 08:50,  999.0,   -3.7,   -2.9,   -2.1,   -0.9,   -1.5,    0.5,   -1.2,   -1.6,   -2.8,   -3.3,  999.0,  999.0,  999.0,  999.0,  999.0,  999.0,  999.0,  999.0,  999.0,  999.0,  999.0,  999.0,  999.0,  999.0,  999.0,  999.0,  999.0,  999.0,  999.0,  999.0,   -0.3,   -0.6,  999.0,   -1.1,   -0.8,   -2.0,  999.0,   -0.8,   -0.9,   -0.7,   -0.9,   -0.9,   -1.2,   -0.8,   -0.5,   -0.7,   -0.8,  999.0,   -0.8,   -0.8,   -0.7,   -1.3,   -0.7,   -0.4,   -1.1,   -0.7,   -1.1
2000/11/07 09:00,  999.0,   -2.2,   -1.9,   -0.5,   -0.9,   -1.3,   -0.9,   -1.4,   -0.5,  999.0,  999.0,  999.0,  999.0,  999.0,  999.0,  999.0,  999.0,  999.0,  999.0,  999.0,  999.0,  999.0,  999.0,  999.0,  999.0,  999.0,  999.0,  999.0,  999.0,  999.0,  999.0,  999.0,  999.0,  999.0,  999.0,  999.0,  999.0,  999.0,  999.0,  999.0,  999.0,  999.0,  999.0,  999.0,  999.0,  999.0,  999.0,  999.0,  999.0,  999.0,  999.0,  999.0,  999.0,  999.0,  999.0,  999.0,  999.0,  999.0
2000/11/07 09:10,  999.0,   -1.4,   -2.7,    1.6,   -0.8,   -0.5,   -0.3,   -0.6,   -1.1,  999.0,  999.0,  999.0,  999.0,  999.0,  999.0,  999.0,  999.0,  999.0,  999.0,  999.0,  999.0,  999.0,  999.0,  999.0,  999.0,  999.0,  999.0,  999.0,  999.0,  999.0,  999.0,  999.0,  999.0,  999.0,  999.0,  999.0,  999.0,  999.0,  999.0,  999.0,  999.0,  999.0,  999.0,  999.0,  999.0,  999.0,  999.0,  999.0,  999.0,  999.0,  999.0,  999.0,  999.0,  999.0,  999.0,  999.0,  999.0,  999.0
2000/11/07 09:20,  999.0,  999.0,  999.0,  999.0,   -0.7,   -0.9,    0.0,   -0.0,   -0.7,   -1.4,  999.0,  999.0,  999.0,  999.0,  999.0,  999.0,  999.0,   -5.0,  999.0,  999.0,  999.0,  999.0,  999.0,  999.0,  999.0,  999.0,  999.0,  999.0,  999.0,  999.0,  999.0,  999.0,  999.0,  -33.3,  999.0,  999.0,  999.0,  -34.5,  -36.8,  -36.0,  999.0,  -38.8,  -38.1,  999.0,  -41.3,  -40.4,  999.0,  -40.5,  999.0,  999.0,  999.0,  999.0,  999.0,  999.0,  999.0,  999.0,  999.0,  999.0
2000/11/07 09:30,  999.0,  999.0,  999.0,   -1.8,   -1.5,   -1.7,   -1.1,   -1.5,   -0.4,   -1.5,   -0.2,  999.0,  999.0,  999.0,  999.0,  999.0,  999.0,  999.0,  999.0,  999.0,  999.0,  999.0,  999.0,  999.0,  999.0,  999.0,  999.0,  999.0,  999.0,  999.0,  999.0,  -34.7,  -35.0,  999.0,  999.0,  -37.3,  -38.4,  999.0,  -39.8,  -40.6,  -41.8,  -41.4,  -42.0,  -41.8,  -42.6,  -43.1,  -41.6,  -41.7,  -41.7,  999.0,  999.0,  -42.0,  -41.8,  999.0,  -41.9,  999.0,  -42.4,  -42.5
2000/11/07 09:40,  999.0,  999.0,  999.0,   -0.4,   -1.3,   -2.5,   -2.1,   -1.7,   -2.3,   -2.5,  999.0,   -7.4,   -7.6,  999.0,  999.0,  999.0,  999.0,  999.0,  999.0,  999.0,  999.0,  999.0,  999.0,  999.0,  999.0,  999.0,  999.0,  999.0,  999.0,  -33.7,  999.0,  -35.1,  -36.0,  -36.8,  -37.7,  -38.6,  -41.1,  -40.0,  -41.1,  -41.5,  -41.5,  -41.7,  -42.2,  -42.0,  -42.1,  -42.3,  -42.3,  -42.1,  -42.5,  999.0,  -42.0,  -41.5,  999.0,  -40.8,  -41.4,  -41.8,  -41.1,  -41.5
2000/11/07 09:50,  999.0,   -2.9,   -2.0,    1.7,    0.0,   -0.5,   -0.8,    0.2,   -2.1,   -2.2,  999.0,  999.0,  999.0,  999.0,  999.0,  999.0,  999.0,  999.0,  999.0,  999.0,  999.0,  999.0,  999.0,  999.0,  999.0,  999.0,  999.0,  -34.2,  -33.8,  -32.3,  -36.9,  -37.1,  -35.5,  -37.8,  -41.7,  999.0,  -40.9,  999.0,  -41.3,  -41.6,  -41.5,  -42.6,  -41.3,  -41.7,  -42.1,  -41.9,  -41.1,  -41.9,  -41.9,  -42.0,  -42.3,  -41.9,  -41.8,  -41.7,  -41.0,  -41.8,  -41.5,  -41.4
2000/11/07 10:00,  999.0,   -1.4,   -1.1,   -0.3,   -0.3,   -0.3,   -1.2,   -1.4,   -1.8,    0.1,  999.0,  999.0,  999.0,  999.0,  999.0,  999.0,  999.0,  999.0,  999.0,  999.0,  999.0,  999.0,  999.0,  999.0,  -31.0,  -31.8,  -33.5,  -34.4,  -35.1,  -36.1,  -38.0,  999.0,  -39.7,  -41.3,  -41.4,  -41.5,  -41.3,  -41.4,  -42.1,  -41.9,  -42.0,  -41.6,  -41.4,  -41.4,  999.0,  -41.7,  999.0,  -41.9,  999.0,  -41.4,  -42.2,  -42.0,  -42.4,  -41.2,  -41.5,  -41.7,  -41.5,  -41.9
2000/11/07 10:10,  999.0,   -0.9,    1.1,    0.0,    0.0,   -1.0,  999.0,   -0.8,   -1.4,  999.0,  999.0,  999.0,  999.0,  999.0,  999.0,  999.0,  999.0,  999.0,  999.0,  999.0,  999.0,  999.0,  -26.5,  999.0,  -28.5,  -30.2,  -32.0,  -31.8,  -34.2,  -35.5,  -38.3,  -38.2,  -39.4,  -40.3,  -42.1,  -41.7,  -42.4,  -42.1,  -42.2,  999.0,  -41.7,  -41.5,  -41.7,  -41.8,  999.0,  999.0,  -41.9,  -41.9,  -41.3,  999.0,  -42.2,  -42.0,  -41.2,  -41.3,  -41.2,  -42.0,  -41.2,  -40.9
2000/11/07 10:20,  999.0,   -0.9,   -0.2,   -0.0,  999.0,   -0.7,   -1.0,   -0.5,  999.0,  999.0,  999.0,  999.0,  999.0,  999.0,  999.0,  999.0,  999.0,  999.0,  999.0,  999.0,  999.0,  999.0,  -29.4,  -28.0,  999.0,  -34.7,  -33.2,  -34.1,  -36.0,  -35.5,  -40.8,  -40.2,  -39.8,  -40.7,  -42.4,  -41.9,  -42.2,  -42.2,  -42.4,  -42.1,  -42.0,  -41.7,  -42.1,  -42.4,  -41.4,  -41.2,  -41.4,  -41.2,  999.0,  999.0,  -41.1,  -41.1,  -41.3,  -41.9,  -41.7,  -41.5,  -42.1,  -41.9
2000/11/07 10:30,  999.0,   -2.3,   -1.1,   -0.5,    0.1,   -0.4,   -1.1,  999.0,  999.0,  999.0,  999.0,  999.0,  999.0,  999.0,  999.0,  999.0,  999.0,  999.0,  999.0,  999.0,  999.0,  999.0,  -29.6,  -30.4,  -32.4,  -33.9,  999.0,  999.0,  -36.8,  -37.6,  -38.6,  -39.3,  -41.2,  -41.0,  -41.5,  -41.5,  -41.6,  -41.1,  -20.5,  -41.6,  -42.2,  -41.7,  -41.3,  -40.8,  -41.7,  -41.7,  -41.8,  -41.5,  -41.6,    0.9,  -41.5,  -20.2,  -41.4,  -41.6,  -41.5,  -31.0,  -27.6,  -42.0
2000/11/07 10:40,  999.0,   -1.7,   -1.4,   -1.4,    0.2,    0.3,   -0.4,   -1.6,   -1.5,  999.0,  999.0,  999.0,  999.0,  999.0,  999.0,  999.0,  999.0,  999.0,  999.0,  999.0,  999.0,  -30.0,  -31.1,  -32.1,  999.0,  -35.1,  -36.7,  -37.7,  -37.5,  -42.1,  -41.9,  -41.6,  -41.7,  -42.2,  -42.0,  -41.7,  -41.8,  -41.9,  -41.8,  -41.6,  -41.8,  -41.6,  -41.4,  -41.9,  -41.9,  -41.9,  -41.7,  -41.7,  -41.3,  -41.6,  -41.7,  -42.2,  -42.1,  -42.5,  -41.9,  -42.2,  -42.2,  -42.1
2000/11/07 10:50,  999.0,   -1.7,   -1.7,   -1.1,   -1.1,   -0.3,   -1.0,  999.0,  999.0,  999.0,  999.0,  999.0,  999.0,  999.0,  -23.9,  -25.6,  -27.4,  -29.0,  -30.0,  -30.1,  -28.4,  -30.3,  -35.5,  -38.2,  -35.5,  -41.5,  -41.4,  -41.9,  -41.7,  -41.6,  -41.9,  -42.0,  -41.6,  -42.7,  -42.1,  -41.3,  -42.5,  -42.2,  -41.6,  -41.6,  -42.2,  -42.2,  -42.0,  -41.7,  -42.0,  -41.6,  -42.4,  -42.2,  -41.4,  -42.0,  -41.7,  -41.5,  -42.0,  -42.0,  -41.8,  -41.5,  -42.6,  -42.0
2000/11/07 11:00,  999.0,   -1.0,   -4.1,   -3.6,   -2.8,   -1.7,   -3.1,   -0.0,  999.0,  999.0,  999.0,  999.0,  999.0,  999.0,   -8.5,  999.0,  999.0,  -30.9,  -31.0,  -32.1,  -33.4,  -35.1,  -36.2,  -40.0,  -37.6,  -40.4,  -39.5,  -41.9,  -42.0,  -41.6,  -42.0,  -41.4,  -41.7,  -42.0,  -42.2,  -42.5,  -41.7,  -41.9,  -41.8,  -41.3,  -41.5,  -41.5,  -41.6,  -40.9,  -42.1,  -41.5,  -41.4,  -41.7,  -41.9,  -42.4,  -42.0,  -42.1,  -42.3,  -41.9,  -41.5,  -41.8,  -42.0,  -42.4
2000/11/07 11:10,  999.0,   -0.8,   -1.4,   -1.3,   -2.6,   -2.8,   -2.5,   -1.8,   -2.7,  999.0,  999.0,  999.0,  -22.3,  999.0,   -1.0,  -21.6,  -23.8,  -26.3,  -28.5,  -30.4,  -31.1,  -34.3,  -32.7,  999.0,  -38.1,  -39.6,  -41.6,  -41.7,  -41.5,  -41.7,  -41.5,  999.0,  -41.5,  -42.0,  -41.5,  999.0,  -41.8,  -42.1,  -42.3,  -42.0,  -42.0,  999.0,  -41.3,  -41.6,  -41.7,  -41.4,  -41.7,  -42.0,  -41.3,  -41.7,  -42.1,  -41.9,  -42.1,  999.0,  -41.1,  -41.7,  -41.5,  999.0
2000/11/07 11:20,  999.0,    0.6,    1.1,    0.9,    1.0,    0.2,    0.5,   -0.3,   -1.6,    0.7,  999.0,  999.0,  -21.3,  999.0,  -20.9,  999.0,  999.0,  999.0,  -14.1,   14.0,   -6.8,   10.8,   -5.1,   -5.2,   14.9,   15.6,   13.6,    1.8,    0.3,    0.6,    6.5,  -11.0,  -35.2,  -36.0,    0.7,  -18.4,  -37.6,  -18.9,  -16.7,  -37.5,    1.2,  -25.7,  -38.6,  -18.1,    1.1,  -18.6,    0.6,  -39.2,    0.8,  -42.2,  -20.5,  -41.0,  -41.6,    0.9,    1.0,  -20.7,  -41.8,    0.5
2000/11/07 11:30,  999.0,    6.0,    8.1,    6.3,   -0.7,   -0.3,    2.6,    1.0,    0.3,  999.0,   -1.8,  999.0,  999.0,  999.0,  999.0,  999.0,  999.0,  999.0,  999.0,  999.0,   11.1,   11.3,    9.3,    6.5,  999.0,    2.9,  999.0,    0.3,    0.6,    0.4,    0.8,    0.7,  999.0,  999.0,    0.9,  999.0,  999.0,  -19.9,  999.0,    1.1,  999.0,  999.0,  -41.3,  -20.4,    1.7,  -20.6,    0.7,    0.7,    0.2,  999.0,    1.4,    0.4,    0.1,  999.0,    1.2,    0.5,  999.0,    0.7
2000/11/07 11:40,  999.0,  999.0,    6.0,    3.6,    3.7,    1.9,    0.6,   -0.3,   -2.6,   -2.9,  999.0,  999.0,  -21.7,  -21.1,  -22.4,  -22.5,  -25.0,  -25.9,  -28.2,  -30.5,  -33.4,  -13.2,   -8.5,  -17.2,  999.0,  -41.3,   -9.4,    0.4,  -20.6,  -31.4,  -42.3,    1.5,    0.5,  -41.9,    0.8,  -10.0,  -42.9,    1.1,  -41.7,  -41.5,  -41.8,  -20.8,  -20.7,  -41.7,  -41.6,  -41.1,  -20.1,  -41.8,  -41.7,  -20.5,  -41.8,    0.8,  -42.0,  999.0,  -41.9,  -41.0,    0.9,  -10.0
2000/11/07 11:50,  999.0,    3.3,    2.0,  999.0,  999.0,    2.1,   -1.5,   -3.4,   -5.3,   -4.3,   -5.0,   -1.2,  999.0,  999.0,  999.0,  999.0,   18.5,   16.4,   14.4,   12.5,    7.1,  999.0,    3.6,    3.0,    1.5,    0.5,    0.4,    0.7,    0.7,    1.0,    0.7,    0.5,    0.2,    0.5,    0.9,    1.1,    0.6,    0.6,    0.6,    0.8,    0.6,    0.6,    0.9,    0.6,    0.6,  999.0,    0.6,    0.9,    0.6,    0.7,    0.8,  999.0,    0.6,   -6.3,   -6.4,  -20.4,    1.2,    1.5
2000/11/07 12:00,  999.0,  999.0,   -0.0,   -1.3,   -6.7,   -1.2,   -0.1,   -0.5,   -0.9,   -2.0,   -4.7,   -3.9,  999.0,  999.0,  999.0,  999.0,  999.0,   15.0,   13.8,  999.0,   11.5,    9.8,    5.8,    5.6,    2.9,    1.2,    0.5,    0.5,    0.6,    0.7,    0.6,    0.8,    0.7,    0.9,    0.7,    0.7,  999.0,  -20.5,  -41.5,  -20.5,    1.5,    0.7,    0.8,    0.7,    0.7,  999.0,    1.0,  999.0,    0.3,    0.8,    0.6,    0.3,    0.6,    0.4,    1.2,    0.6,    1.0,  999.0
2000/11/07 12:10,  999.0,    2.1,    0.2,   -4.0,   -3.3,   -2.7,   -3.8,   -2.5,   -4.2,   -3.6,   -4.3,   -4.3,  -21.7,  -21.7,  -21.3,  -21.6,  999.0,  999.0,  -23.5,  -24.1,  -24.6,   -9.0,  -10.3,  -26.1,  -13.1,  -13.7,  -28.1,  -13.7,  -28.7,  -29.7,  -30.1,  -30.3,  -31.5,  -32.1,  -32.5,  -32.7,  -33.5,  -34.4,  -34.8,  -35.6,  -36.0,  999.0,  -37.0,  -37.5,  -37.7,  -38.6,  -39.0,  -39.5,  -40.6,  -40.5,  -41.0,  -41.5,  -42.0,  -41.9,  -42.1,  -43.0,  999.0,  -41.5
2000/11/07 12:20,  999.0,    0.2,    0.1,    0.6,    0.3,    1.1,    0.3,    0.2,   -0.5,   -1.4,   -1.5,   -1.8,   -1.6,   -0.8,  999.0,  999.0,    1.5,  999.0,  999.0,  999.0,  -14.4,   -9.1,   -6.9,   -0.7,   -4.8,   -4.4,   -2.4,   -2.6,   -4.3,   -1.6,   -0.9,   -0.9,   -0.5,   -0.8,    6.2,   -0.8,    6.2,    6.4,    9.9,   -1.5,    6.4,   -0.7,   -1.1,   -0.9,   13.7,   13.6,   -0.8,   -0.9,   -0.8,    5.9,    3.4,   -6.9,   -0.4,    0.2,    5.3,   -0.8,   -7.2,    6.3
2000/11/07 12:30,  999.0,    0.1,   -0.8,   -0.9,   -0.0,    1.3,    1.2,   -1.1,    0.2,    0.6,   -2.3,   -2.9,   -1.9,   -2.8,   -2.1,  999.0,   -2.6,  999.0,  999.0,  999.0,  -13.0,   -9.5,   -6.6,   -3.6,   -0.8,   -0.6,   -0.4,   -1.1,   -0.3,   -0.6,   -1.9,   -0.7,   -0.8,   -0.7,   -0.4,   -0.6,  999.0,   -0.9,   -1.1,   -1.0,   -0.4,   -0.7,   -0.5,   -1.1,   -0.9,   -1.0,   -0.7,   -0.9,   -0.9,  999.0,   -0.7,   -1.1,   -0.5,   -0.7,   -0.6,   -0.6,   -1.0,   -1.0
2000/11/07 12:40,  999.0,   -0.4,   -0.7,   -0.9,    0.1,    2.0,    0.0,    2.5,    0.7,    1.5,    0.6,   -0.6,   -3.8,   -2.1,   -3.5,  999.0,  999.0,  999.0,  999.0,   -8.2,   -6.0,   -5.3,   -2.7,   -0.8,   -0.8,   -0.6,   -0.6,   -0.9,   -0.4,   -0.5,   -1.1,   -0.4,   -0.6,   -0.9,   -0.6,   -0.9,   -0.9,   -0.9,   -5.1,   -7.9,   -1.1,   -0.7,   -0.8,   -0.8,   -0.3,   -5.1,   -1.0,   -0.7,  -15.6,   -0.5,   -0.5,   -0.5,   -0.7,   -1.4,   -1.6,   -7.7,   -0.7,   -0.8
2000/11/07 12:50,  999.0,   -0.4,   -1.0,   -0.7,   -0.2,   -0.1,    0.3,   -0.1,   -0.2,    1.8,    0.1,    0.8,   -2.1,   -1.5,    0.6,   -7.3,  -16.2,  -13.9,  999.0,  999.0,  -15.0,   -5.1,   -3.5,   -2.0,   -1.7,   -0.8,   -0.7,   -0.9,   -0.3,   -1.2,   -0.4,   -0.7,   -0.4,   -0.8,   -0.7,   -0.2,   -0.5,   -0.7,   -0.7,   -0.9,   -0.7,   -1.3,   -0.8,   -0.7,   -0.6,   -0.8,   -0.2,   -0.3,   -1.0,   -0.7,   -0.4,   -0.5,   -0.5,   -0.9,  999.0,   -0.5,   -0.7,   -0.9
2000/11/07 13:00,  999.0,   -0.8,   -2.4,   -1.8,   -1.6,   -1.1,   -0.2,    0.1,   -0.5,   -0.0,   -0.5,   -1.1,   -1.9,   -1.9,  -10.7,  -20.6,  999.0,   -5.5,  999.0,   -9.1,   -6.7,  999.0,  -31.6,  -33.4,  -18.1,  -37.4,  -20.6,  -21.3,  -14.1,  -21.0,  -41.6,   -1.3,  -11.6,  -10.3,  -13.9,  -14.8,   -0.7,   -8.7,   -3.4,  -12.6,  -21.5,   -9.3,   -6.0,   -0.6,   20.5,    1.1,   -0.7,   -2.4,   -6.6,    3.7,   -2.5,  -17.7,  999.0,    9.9,   -0.8,    6.1,  -10.7,   20.5
2000/11/07 13:10,  999.0,  999.0,   -0.2,   -1.6,   -1.7,   -1.9,   -1.7,   -1.1,   -0.0,    1.9,    0.8,    0.1,   -9.8,   -7.2,   -7.5,   -7.6,   -1.4,    1.6,    3.6,    3.6,    0.9,    1.5,    0.9,    0.9,    0.0,   -0.2,   -0.5,   -0.5,   -0.9,   -1.7,   -2.4,   -2.4,   -1.0,   -1.2,   -0.6,   -1.4,   -1.9,   -0.6,    0.0,   -0.9,   -0.9,   -0.8,   -0.7,   -0.6,   -0.7,   -0.7,   -0.9,   -1.1,   -1.8,   -0.8,   -0.7,   -1.2,   -1.1,   -0.5,   -0.7,   -0.7,  -11.1,   -0.8
2000/11/07 13:20,  999.0,  999.0,   -1.6,   -2.3,   -2.9,   -0.7,   -0.1,    4.2,  999.0,    4.2,    0.8,   -1.1,  -11.8,  999.0,   -6.8,   -3.8,   -4.7,    0.1,    1.2,  999.0,   -2.1,   -1.8,   -0.6,   -0.8,   -1.7,   -1.4,   -1.7,   -0.7,   -1.1,   -1.1,   -0.7,   -1.1,    0.2,   -0.7,   -1.2,    2.3,    0.1,   -0.6,   -0.8,   -1.2,   -0.4,   -0.5,   -0.6,   -0.6,   -0.4,  999.0,   -0.4,   -0.5,   -0.3,   -1.5,   -1.2,   -1.2,   -0.8,   -1.1,   -1.2,   -0.7,   -0.6,   -0.2
2000/11/07 13:30,  999.0,   -0.1,   -0.8,   -1.4,   -2.6,   -2.0,   -2.1,   -2.0,  999.0,  999.0,  999.0,  999.0,  -16.7,  -15.9,  -15.3,  -14.2,  -14.3,  -12.1,   -8.7,   -8.3,  999.0,  -10.2,  999.0,   -8.0,    3.8,   -0.8,  999.0,   -0.7,   -1.0,   -1.0,  -12.5,   -0.6,   -8.4,   -0.9,   -1.0,   -1.7,   -1.0,   -1.0,   -1.1,   -1.0,   -0.9,   -0.6,   -1.2,   -1.6,   -0.5,   -0.5,   -1.2,   -1.4,   -1.1,   -0.5,   -2.0,   -0.7,   -0.5,   -0.6,   -0.1,   -0.9,  999.0,  999.0
2000/11/07 13:40,    5.4,  999.0,    5.6,   19.3,  999.0,  999.0,   -1.2,   12.6,   17.2,   -1.2,  999.0,  999.0,  999.0,  999.0,  999.0,    0.1,    0.7,    2.5,    2.0,    2.5,    1.3,    0.1,   -0.7,   -0.6,    0.9,    0.9,    1.2,    1.1,    1.8,    3.6,    4.2,  999.0,  999.0,  999.0,  999.0,    0.4,  999.0,   -2.9,   -1.8,   -3.6,  999.0,  999.0,  999.0,   -2.2,   -1.7,  999.0,    0.3,  999.0,  999.0,  999.0,  999.0,  999.0,  999.0,  999.0,   -0.0,  999.0,   -0.9,   -0.4
2000/11/07 13:50,    8.5,   14.8,   12.5,   -0.7,  -10.0,   -1.2,   -6.1,    4.0,   -1.1,   15.4,  999.0,  999.0,  999.0,    6.4,    7.9,    7.4,    3.6,    8.3,    8.3,    3.9,    9.2,    7.6,    7.3,    6.6,    7.2,    8.3,    7.5,    6.5,  999.0,  999.0,  999.0,  999.0,  999.0,   -0.4,   -0.9,   -0.2,   -3.5,  999.0,   -0.4,  999.0,   -5.3,   -5.2,   -4.3,   -3.9,   -2.4,   -2.1,   -1.6,  999.0,  999.0,  999.0,  999.0,  999.0,   -0.6,   -1.0,   -0.7,  999.0,   -0.3,   -1.4
2000/11/07 14:00,   -0.7,  999.0,   -0.9,   -0.7,   -0.5,  999.0,    2.6,    6.7,    3.0,    3.0,    4.0,    2.4,  999.0,   -0.7,  999.0,    2.9,    4.2,  999.0,    5.3,   -0.6,   -0.9,   -0.9,   -0.2,   -1.4,   -0.3,   -0.4,   -1.1,    0.0,  999.0,   -0.5,  999.0,   -0.7,   -0.6,   -0.4,   -0.5,  999.0,   -0.3,   -0.8,  999.0,   -0.9,   -0.2,  999.0,   -1.1,  999.0,   -1.1,   -0.7,   -0.2,  999.0,   -0.8,   -0.1,   -0.5,   -0.0,   -0.5,   -0.7,   -0.7,   -0.5,   -0.9,   -0.7
2000/11/07 14:10,    2.4,   -0.4,   -0.8,    3.0,  999.0,   11.8,  999.0,  999.0,  -22.1,   -9.1,  -17.6,  -19.0,   -0.5,  -10.6,   -8.4,   -2.9,   -3.5,   -1.1,  999.0,    0.1,   -0.6,   -0.8,   -1.0,   -1.1,   -0.7,   -0.0,   -0.3,  999.0,   -0.1,   -0.4,   -0.6,   -0.4,   -1.2,   -0.4,   -0.9,  999.0,   -1.2,   -0.9,   -0.4,   -0.6,   -0.6,   -0.4,   -0.6,   -0.9,   -0.3,   -1.0,  999.0,   -0.8,   -0.6,   -1.1,   -0.6,   -1.1,   -1.0,   -0.4,   -1.2,   -0.8,   -0.9,   -0.7
2000/11/07 14:20,   -0.7,   -1.3,   -0.9,   -0.5,   -0.8,   -0.7,   -0.9,  999.0,   -0.5,   -1.0,   -0.7,   -0.5,   -0.5,   -0.4,   -0.5,   -0.4,   -1.1,   -1.0,   -1.1,   -0.5,   -0.8,   -0.2,   -1.1,   -1.0,   -0.6,   -0.6,   -0.9,   -0.3,   -0.1,   -0.3,   -0.9,   -1.3,   -0.9,   -0.4,   -0.5,   -0.6,   -0.7,   -0.8,   -0.4,   -0.4,   -0.3,   -1.2,   -0.5,   -0.9,   -0.8,   -0.3,   -0.6,   -0.9,   -0.6,   -0.9,   -1.4,   -1.2,   -0.9,   -0.8,   -0.9,   -0.9,   -1.0,  999.0
2000/11/07 14:30,    0.6,    2.3,    3.2,   18.6,    8.4,    1.0,   -3.5,   -2.7,  999.0,   -0.6,   -6.2,   -0.9,   -0.7,   -3.3,   -0.8,   -1.1,   -1.2,   -0.6,   -0.7,   -1.0,   -0.2,   -0.5,   -0.5,   -0.8,   -1.5,   -0.8,   -0.8,   -1.1,   -0.7,   -1.1,   -1.7,   -0.7,   -0.5,   -0.6,   -0.8,   -0.7,   -0.7,   -0.8,   -0.6,   -0.6,   -0.5,   -0.2,   -0.7,   -0.6,   -1.1,   -1.0,   -0.8,   -1.2,   -0.6,   -0.7,   -0.9,   -1.0,   -0.7,   -0.9,   -0.4,   -0.9,   -0.5,   -0.8
2000/11/07 14:40,   -0.7,  999.0,   -1.4,  999.0,  999.0,   -1.2,   -1.0,   -1.0,   -0.6,   -0.7,   -0.5,   -1.3,   -0.4,   -0.6,   -0.7,   -0.6,   -0.3,   -0.5,   -0.9,   -1.1,   -0.6,   -0.5,   -0.4,   -0.9,   -0.6,   -1.3,   -1.0,   -1.0,   -1.2,   -0.8,   -0.4,   -0.8,   -0.6,   -0.6,   -0.9,   -0.7,   -0.6,   -0.8,   -0.7,   -0.8,   -0.5,   -0.5,   -0.6,   -1.1,   -0.9,   -0.7,   -0.7,   -0.6,   -0.6,   -0.9,   -0.7,   -0.9,   -0.7,   -0.5,   -0.5,   -0.8,    0.1,   -1.1
2000/11/07 14:50,  999.0,  999.0,  999.0,  999.0,  999.0,   -4.4,   -3.6,   -5.7,    8.4,   -0.7,   -3.2,   -1.2,  999.0,   -0.4,   -1.2,   -0.7,   -1.1,   -0.8,   -0.9,   -0.8,  999.0,   -0.6,   -0.6,   -0.9,   -1.4,    0.1,   -0.5,   -0.1,   -1.1,   -0.9,   -0.5,   -0.5,   -0.5,   -0.9,   -1.0,   -0.8,   -0.5,   -0.8,   -0.8,   -0.5,   -0.8,   -1.1,   -0.5,   -0.6,   -0.6,   -1.0,   -0.4,   -0.8,   -0.5,   -0.7,   -0.2,   -1.1,   -1.7,   -1.0,   -0.5,   -0.8,   -0.5,   -0.6
2000/11/07 15:00,  999.0,  999.0,  999.0,  999.0,   -1.9,   -0.9,    0.0,   -1.1,   -1.1,  -10.9,   -0.9,  999.0,   -0.8,   -0.8,   -1.0,   -0.6,   -9.6,   -0.9,   -0.7,   -0.8,   -5.4,   -7.3,   -0.4,   -6.6,   -6.6,   -1.0,   -1.3,   -5.9,   -1.3,   -3.2,   -4.3,   -4.0,   -2.3,  999.0,   -0.5,   -1.9,   -1.2,   -1.5,   -1.7,   -1.0,   -0.6,   -0.6,   -0.4,   -0.8,   -0.8,   -0.5,   -0.8,   -0.8,   -0.7,   -0.9,  999.0,   -0.8,   -0.3,   -0.6,   -0.5,   -0.7,   -0.1,  999.0
2000/11/07 15:10,  999.0,  999.0,   -0.6,  999.0,  999.0,   -0.4,   -0.9,   -0.5,   -0.6,   -0.2,   -0.5,   -0.5,   -0.6,   -0.9,   -0.8,   -0.8,   -0.3,   -1.0,   -0.2,   -0.7,   -0.8,   -1.2,   -0.5,   -0.8,   -0.8,   -0.9,  999.0,   -0.7,  999.0,   -0.6,   -0.5,   -0.6,   -0.8,   -0.9,   -0.8,   -1.2,   -0.6,   -1.1,   -0.4,   -0.8,   -0.7,   -0.8,   -1.2,   -0.8,   -0.4,   -0.7,   -1.0,   -0.7,   -0.8,   -0.9,   -0.4,   -0.5,   -0.7,   -0.2,   -0.8,   -0.6,   -0.8,   -1.1
2000/11/07 15:20,    8.8,  999.0,    6.3,    5.9,    9.6,    6.2,   -2.9,    2.2,    9.2,    3.6,   -7.4,   -0.7,   -1.1,   -4.9,   -4.7,   -0.8,   -0.6,   -0.9,   -0.8,   -0.9,   -0.2,   -0.2,   -0.4,   -0.4,   -1.0,   -0.7,   -0.7,   -0.7,   -0.7,   -0.9,   -0.8,   -0.8,   -0.7,   -0.7,   -0.9,   -0.5,   -0.7,   -1.3,   -0.9,   -1.6,   -0.9,   -1.1,  999.0,   -0.6,   -0.7,   -0.5,   -0.7,   -0.8,   -0.9,   -0.6,   -0.7,   -0.2,   -1.1,   -0.6,   -0.7,   -1.1,   -0.5,   -0.7
2000/11/07 15:30,  999.0,  999.0,  999.0,  999.0,    0.1,   -0.6,   -0.6,   -0.6,   -7.3,   -3.5,   -0.6,   -0.4,   -0.3,   -4.2,    0.9,   -0.0,   -0.4,   -0.7,   -0.2,   -0.6,   -0.6,   -0.5,   -0.1,    0.9,   -0.9,   -0.6,  999.0,   -0.6,   -0.3,   -0.3,   -0.3,   -1.1,   -0.7,   -0.2,   -0.8,   -0.7,    0.3,   -1.3,   -0.9,   -0.1,   -1.1,   -0.8,  999.0,   -0.6,   -0.9,   -0.5,   -0.4,   -0.7,   -0.8,   -0.3,   -0.5,   -0.8,   -0.5,   -0.7,   -0.8,   -1.3,   -0.9,   -0.7
2000/11/07 15:40,  999.0,  999.0,  999.0,  999.0,  999.0,   -1.0,   -0.7,   -0.6,   -0.3,   -0.6,   -1.0,   -0.8,   -0.5,   -0.6,   -0.6,   -0.2,   -1.2,   -0.1,   -0.3,   -0.4,  999.0,   -0.9,   -0.2,   -0.9,   -0.6,   -0.6,   -0.9,   -0.3,   -1.0,   -0.9,   -0.6,   -0.7,   -0.5,   -0.6,   -0.8,   -0.8,   -0.6,   -0.3,   -0.7,   -0.9,   -0.8,   -1.1,   -1.3,   -0.6,   -0.7,   -0.7,   -1.2,   -0.7,   -0.7,   -0.0,   -0.6,   -0.6,   -0.7,   -0.7,   -0.7,   -0.9,   -0.7,   -0.1
2000/11/07 15:50,  999.0,  999.0,  999.0,  999.0,   -1.3,   -0.9,   -0.7,  999.0,   -0.6,   -1.0,   -0.4,   -0.2,   -0.4,   -0.4,   -0.6,   -0.6,   -1.0,   -0.8,   -0.4,   -0.1,   -0.6,   -0.8,   -0.9,   -1.3,   -0.8,   -1.5,   -0.7,   -0.5,   -0.7,   -0.4,   -0.6,   -0.5,   -1.0,   -0.6,   -0.8,   -0.8,   -0.6,   -1.2,   -0.8,   -0.7,   -0.9,   -0.7,  999.0,   -0.6,   -0.7,   -1.2,   -0.5,   -0.7,   -0.7,   -0.5,  999.0,   -0.8,   -0.9,   -0.9,   -0.7,   -0.8,   -0.8,   -0.8
2000/11/07 16:00,  999.0,  999.0,  999.0,   -0.8,  999.0,   -1.0,   -0.5,   -0.6,   -0.7,   -0.6,   -0.0,   -0.7,   -0.4,   -0.7,   -0.7,   -0.1,   -0.7,   -1.2,   -1.2,    0.1,   -1.1,   -0.4,   -0.6,   -0.7,   -0.3,   -0.8,   -0.8,   -0.8,   -0.5,   -1.1,   -0.4,   -0.2,  999.0,   -1.0,   -0.9,   -0.7,   -0.5,   -0.3,   -1.9,   -0.6,   -0.6,   -1.2,   -1.0,   -1.3,   -1.0,   -0.9,   -0.9,   -0.8,   -1.3,   -0.9,   -1.0,   -1.0,   -0.9,   -1.4,   -0.7,   -0.9,    0.2,   -0.8
2000/11/07 16:10,    0.6,  999.0,  999.0,   -0.9,   -1.0,   -0.6,   -1.1,   -1.3,  999.0,   -0.7,   -0.9,   -0.6,   -1.4,   -1.0,   -0.4,   -0.6,   -0.5,   -0.5,   -0.8,   -0.9,   -0.7,   -0.5,   -1.0,   -0.7,   -1.0,   -0.7,   -0.2,   -0.3,   -0.0,   -0.8,   -0.9,   -0.8,   -0.9,   -0.7,   -0.8,   -1.0,   -1.1,   -0.8,   -0.3,   -0.9,   -1.0,   -0.9,   -0.5,   -0.3,   -0.4,   -0.5,   -1.2,   -1.4,   -0.7,   -0.3,  999.0,   -1.2,   -0.8,   -0.9,   -0.7,   -0.4,   -0.7,   -1.0
2000/11/07 16:20,   -0.8,  999.0,  999.0,  999.0,   -0.6,   -1.1,  999.0,   -1.0,  999.0,   -0.6,  999.0,   -0.3,   -0.5,   -0.9,   -0.6,   -0.3,   -0.8,   -0.6,   -0.5,   -1.1,   -1.3,   -1.2,   -0.5,   -0.8,   -1.1,   -0.2,   -0.2,   -0.4,   -0.7,   -1.1,   -0.8,   -0.8,   -0.7,   -0.4,   -0.6,   -1.1,   -0.9,   -0.9,   -0.8,   -0.8,   -1.0,   -0.5,   -1.0,   -0.8,   -0.6,   -0.9,   -0.9,   -1.0,   -1.1,   -0.9,   -1.7,   -0.6,   -0.3,   -1.0,   -0.8,   -0.8,   -0.6,   -0.8
2000/11/07 16:30,   -0.8,   -3.0,   -0.4,   -0.2,   -0.4,   -0.9,   -0.6,  999.0,   -0.5,   -0.1,   -0.6,   -0.8,   -1.3,   -0.4,   -0.6,   -0.2,   -0.6,   -0.5,   -0.8,   -0.7,   -1.0,    0.1,   -0.5,   -0.9,   -0.1,   -0.7,   -0.4,   -0.6,   -0.8,   -0.5,   -0.7,   -0.6,   -1.0,   -0.3,   -0.3,   -0.6,   -0.8,   -0.5,   -0.4,   -1.4,   -0.8,   -0.3,   -1.0,   -1.1,   -0.6,   -0.8,   -0.5,   -0.8,   -1.0,   -0.6,  999.0,   -0.8,   -0.5,   -1.5,   -1.0,   -0.2,   -0.9,   -1.2
2000/11/07 16:40,   -0.8,  999.0,   -0.9,   -1.1,   -0.8,   -1.2,   -0.6,   -1.1,  999.0,   -1.0,   -0.7,   -0.6,  999.0,   -0.6,   -0.6,   -0.8,   -0.6,   -0.6,   -1.1,   -0.8,   -0.8,   -0.7,   -0.9,   -0.7,   -1.0,   -0.2,   -0.8,   -1.0,   -0.4,   -0.7,   -1.1,   -1.4,   -1.0,   -1.0,   -1.0,   -0.6,   -1.2,  999.0,   -1.1,   -0.3,   -0.8,   -0.7,   -0.8,   -0.8,  999.0,   -1.1,   -0.8,   -1.0,   -0.5,   -0.3,  999.0,   -0.4,   -0.9,   -0.8,   -1.2,   -0.2,   -0.6,   -0.8
2000/11/07 16:50,    3.5,    1.7,   -0.6,    1.6,   -6.4,   -6.3,   -3.1,    5.9,   -0.9,    2.3,   -1.2,    1.0,  -14.9,   -7.4,   -5.2,    0.7,    3.7,  999.0,   -0.6,   -0.8,   -0.5,   -0.8,   -0.3,   -0.4,   -0.2,   -1.0,   -0.6,   -0.9,   -0.2,   -0.3,   -0.6,   -0.3,   -0.6,   -0.4,   -0.2,   -0.6,   -0.5,   -0.3,   -0.0,   -0.7,   -0.9,   -0.4,   -0.7,   -0.5,   -0.8,   -0.3,   -0.4,  999.0,   -0.8,   -1.0,   -1.3,   -0.9,   -0.8,   -0.7,   -1.2,   -1.0,   -1.1,   -0.8
2000/11/07 17:00,    4.4,    0.9,    2.0,    0.7,   -0.6,   -0.5,   -0.3,   -1.3,   -4.5,   -4.8,   -4.0,   -3.6,   -3.9,   -4.7,   -3.3,   -2.1,  999.0,  -12.3,  -10.9,   -7.7,   -7.0,  -11.7,  -15.8,  -14.5,  -12.8,   -5.4,   -6.7,   -6.0,   -6.4,   -5.0,  999.0,   -3.2,   -1.5,   -1.0,  999.0,  999.0,  999.0,  999.0,    5.5,    4.9,    5.5,    9.3,  999.0,  999.0,  999.0,    1.7,  999.0,    2.1,   -0.4,  999.0,    1.1,   -0.4,   -0.5,   -1.0,   -0.4,  999.0,   -0.8,   -1.6
2000/11/07 17:10,    2.3,   -0.1,   -1.6,   -0.5,   -1.0,   -2.5,   -3.3,   -3.2,    2.7,    2.2,    1.9,    6.3,    6.6,   -2.3,   -1.3,   -0.7,   -0.7,    0.5,   -3.6,   -3.8,   -3.8,   -3.7,   -1.7,   -1.3,   -1.5,   -2.3,   -1.7,   -2.0,   -2.6,   -4.0,   -3.7,   -2.9,   -4.1,   -0.4,   -0.5,   -0.7,   -1.2,   -1.4,   -1.2,   -0.9,   -1.1,   -0.8,   -0.7,   -0.3,   -0.7,   -0.8,   -0.5,   -0.6,   -0.5,   -0.5,  999.0,   -0.8,   -0.9,   -1.0,   -0.7,   -0.6,   -0.6,   -1.4
2000/11/07 17:20,   17.3,    9.2,    6.1,    4.6,    1.2,   -0.4,   -1.7,   -1.7,   -1.5,   -1.7,   -1.6,   -2.3,   -1.9,   -0.7,    0.1,    1.2,   -0.8,    0.5,  999.0,   -5.7,    2.2,   -5.2,  999.0,   -1.5,  999.0,  999.0,  999.0,  999.0,  999.0,  999.0,  999.0,   -0.8,   -0.9,   -0.7,  999.0,   -1.0,   -1.4,   -0.6,   -0.3,   -0.6,   -0.6,   -1.3,   -1.0,   -0.7,   -0.1,   -0.8,   -0.6,   -0.4,   -0.5,   -0.2,   -0.7,   -1.1,   -0.4,   -0.6,   -0.5,   -0.7,   -0.7,  999.0
2000/11/07 17:30,    1.8,    5.0,    0.8,    1.9,    2.8,    4.4,    1.0,   -0.4,   -2.0,   -3.7,   -5.2,   -5.2,   -5.2,   -4.0,    3.5,   -2.1,   -0.6,   -0.3,   -8.0,   -5.8,   -3.1,  -11.3,  -11.2,   -7.9,   -8.1,   -6.0,   -4.9,   -4.5,   -2.5,    0.8,    1.5,    1.2,   -3.4,   -1.0,  999.0,  999.0,  999.0,   -1.5,   -0.6,   -0.1,   -0.6,   -0.8,   -1.0,   -0.2,   -0.4,   -0.7,   -0.8,   -0.8,   -0.6,   -1.1,   -0.5,   -0.2,  999.0,   -0.3,   -0.4,  999.0,   -0.5,   -0.6
2000/11/07 17:40,   11.7,    2.1,    1.2,    0.3,    0.2,    0.8,    0.6,    0.2,   -1.6,   -3.1,   -5.2,   -2.7,   -8.0,   -6.9,   -7.7,   -3.0,   -1.8,   -3.6,    2.7,    2.9,    4.0,    4.4,   -1.2,   -3.6,   -4.0,   -4.2,    3.1,    2.1,   -0.8,   -0.1,  -10.1,   -8.4,   -8.9,   -9.0,  -21.0,   -5.2,  -11.3,  -23.0,  -12.8,  -13.6,  -27.9,  -13.7,  -13.9,   -6.9,   -8.6,   -0.8,  -13.2,  999.0,  999.0,  999.0,  -21.7,   -1.1,  999.0,  999.0,  999.0,  999.0,  999.0,   -0.3
2000/11/07 17:50,  999.0,  -11.1,   -7.2,   -7.3,   -4.8,   -4.1,   -8.3,   -9.6,   -7.3,   -7.6,   -7.4,   -8.1,  -11.0,   -9.8,   -4.2,  -13.3,  -10.1,   -0.8,    0.0,   -4.5,   -5.6,   -3.9,   -1.7,    0.3,   -9.6,  -11.2,   -8.1,   -8.5,   -6.7,   -8.9,   -7.5,   -7.4,   -6.0,   -6.1,   -9.0,   -9.0,  -11.3,   -9.8,  -13.3,  -14.6,  -11.2,  -10.3,   -6.9,  -11.3,   -9.8,   -6.6,   -8.2,   -3.5,  999.0,  999.0,  -11.1,   -8.2,  999.0,  999.0,   -1.4,  999.0,  999.0,  999.0
2000/11/07 18:00,  999.0,    0.9,    1.7,    0.1,   -0.1,   -0.3,   -0.9,   -0.8,   -1.3,   -1.9,   -2.6,   -3.0,   -3.3,   -4.2,   -6.0,   -7.6,   -8.0,   -6.7,   -6.7,   -6.2,   -4.9,   -5.2,   -6.0,   -7.1,   -7.5,   -5.0,   -4.8,   -3.7,   -2.3,   -1.8,   -3.8,   -2.1,   -5.6,  -11.5,   -9.6,  -10.8,  -16.1,  -13.7,  -11.9,  -14.8,  -19.6,  -20.0,  -20.1,  -19.8,  -16.4,  -18.1,  -14.9,  -20.6,  -23.8,  -17.0,  -11.7,   -2.2,    0.9,  999.0,   -0.3,  999.0,    0.5,  999.0
2000/11/07 18:10,  999.0,    4.1,    4.7,    5.0,    0.0,    2.7,    2.6,    0.4,    0.1,   -0.9,   -3.5,   -4.3,   -4.2,   -3.9,   -4.8,   -5.8,   -5.2,   -5.8,   -5.4,   -3.4,   -3.4,   -4.5,   -4.2,   -4.5,   -5.5,   -5.1,   -4.8,   -3.5,   -1.6,   -2.0,   -3.2,   -3.0,   -4.8,   -2.5,   -4.3,   -2.7,   -0.7,    0.4,    2.3,    1.1,  999.0,    0.8,   -5.5,   -0.8,  999.0,   -2.4,    0.1,  999.0,  999.0,   -0.8,    0.2,    2.3,   -0.6,   -1.5,   -1.5,  999.0,  999.0,   -1.2
2000/11/07 18:20,   19.2,  999.0,  999.0,   12.0,   -0.2,   -0.3,   -6.0,   -5.5,   -3.0,   -3.0,   -2.7,   -3.3,   -3.7,   -4.8,   -2.0,   -2.0,   -4.6,   -5.7,   -5.2,   -4.5,   -3.2,   -6.3,   -7.6,   -5.0,   -9.0,   -9.1,   -6.7,   -3.5,   -3.8,   -2.3,   -3.6,   -5.4,   -1.5,   -2.9,   -4.6,   -2.7,   -1.4,    0.8,   -1.0,  999.0,   -1.0,   -0.7,   -0.7,   -0.9,   -1.2,   -0.7,   -0.4,   -0.5,   -0.2,   -0.7,   -0.8,   -1.0,   -0.9,    0.1,   -0.6,  999.0,   -0.9,   -0.8
2000/11/07 18:30,   22.0,   19.3,   12.0,    9.3,    3.4,    0.2,   -2.5,   -5.3,  999.0,   -4.5,   -6.0,   -6.6,   -5.8,   -8.9,  999.0,  999.0,    5.1,    7.2,   -0.6,  999.0,  999.0,  999.0,  999.0,    2.8,  999.0,  999.0,  999.0,  999.0,  999.0,  999.0,  999.0,  999.0,  999.0,  999.0,  999.0,  999.0,  999.0,  999.0,  999.0,   15.7,  999.0,  999.0,  999.0,  999.0,  999.0,  999.0,  999.0,  999.0,  999.0,  999.0,  999.0,  999.0,  999.0,  999.0,  999.0,  999.0,  999.0,  999.0
2000/11/07 18:40,  999.0,   20.3,   14.8,    5.7,    9.4,  999.0,   -9.2,   10.6,  999.0,   -2.5,   -3.6,   -6.4,   -5.6,    3.2,    3.2,    4.5,    6.6,    4.1,    3.4,  999.0,  999.0,  999.0,   15.8,  999.0,  999.0,  999.0,  999.0,  999.0,  999.0,  999.0,  999.0,  999.0,  999.0,  999.0,  999.0,  999.0,  999.0,  999.0,  999.0,   -0.6,  999.0,  999.0,  999.0,  999.0,   -1.9,  999.0,  999.0,  999.0,  999.0,  999.0,  999.0,  999.0,  999.0,  999.0,   -0.6,    0.3,  999.0,  999.0
2000/11/07 18:50,   15.7,   19.0,   12.0,    9.5,   12.5,    9.7,    8.6,   -2.6,  -11.2,  999.0,   -1.2,  999.0,  999.0,    5.3,    5.4,  999.0,    0.5,   -5.1,    0.0,    6.6,    8.9,    3.0,    1.2,    2.2,    9.4,    1.2,  999.0,  999.0,  999.0,  999.0,  999.0,  999.0,  999.0,  999.0,  999.0,  999.0,  999.0,  999.0,  999.0,  999.0,  999.0,  999.0,  999.0,  999.0,  999.0,  999.0,  999.0,  999.0,  999.0,  999.0,   -0.9,  999.0,  999.0,   -0.6,  999.0,   -0.4,  999.0,   -1.2
2000/11/07 19:00,   15.2,  999.0,   10.1,    7.4,    6.3,   -0.9,    2.9,   -5.3,   -7.5,   -6.5,  -11.9,   -7.7,  999.0,    0.6,  999.0,   -0.3,   -8.3,   -3.6,   -1.2,   -5.4,    2.5,    4.5,  999.0,    8.0,  999.0,    3.9,  999.0,  999.0,  999.0,  999.0,  999.0,  999.0,  999.0,  999.0,  999.0,  999.0,  999.0,  999.0,  999.0,  999.0,  999.0,  999.0,  999.0,  999.0,  999.0,  999.0,  999.0,  999.0,  999.0,  999.0,  999.0,  999.0,  999.0,  999.0,  999.0,  999.0,  999.0,  999.0
2000/11/07 19:10,   23.2,   17.2,   15.1,   11.4,    9.6,    9.1,   -5.2,  999.0,    0.4,   -1.3,   -1.9,   -4.1,   -5.5,  999.0,    3.0,    5.0,   -5.0,   -0.6,   -0.4,  999.0,   -1.4,  999.0,  999.0,    5.6,    8.0,  999.0,  999.0,  999.0,  999.0,  999.0,  999.0,  999.0,  999.0,  999.0,  999.0,  999.0,  999.0,  999.0,  999.0,  999.0,  999.0,  999.0,  999.0,  999.0,  999.0,  999.0,  999.0,  999.0,  999.0,  999.0,  999.0,  999.0,  999.0,  999.0,  999.0,  999.0,  999.0,  999.0
2000/11/07 19:20,   18.1,  999.0,  999.0,  999.0,   11.8,    9.6,    6.7,    3.0,  999.0,  999.0,  999.0,   -3.9,   -3.5,  999.0,  999.0,  999.0,   -0.5,   -3.1,    1.7,  999.0,    0.7,   -1.6,   -1.5,  999.0,  999.0,  999.0,  999.0,  999.0,  999.0,  999.0,    1.6,   18.9,   10.4,  999.0,  999.0,  999.0,  999.0,  999.0,  999.0,  999.0,  999.0,  999.0,  999.0,  999.0,  999.0,  999.0,  999.0,  999.0,  999.0,  999.0,  999.0,  999.0,  999.0,  999.0,  999.0,  999.0,  999.0,  999.0
2000/11/07 19:30,   17.8,  999.0,   14.2,   14.0,   11.4,    7.7,    2.1,    5.5,    2.1,    0.4,   -1.9,  999.0,   -1.9,   -1.4,  999.0,  999.0,   -4.7,  999.0,   -4.5,  999.0,  -18.5,  -17.8,  999.0,  999.0,  999.0,  999.0,  999.0,  -14.6,  999.0,  999.0,  999.0,   -6.4,  999.0,    0.0,  999.0,  -10.7,  999.0,  999.0,   -8.3,   -8.3,  999.0,   -7.0,  999.0,  999.0,   -5.4,  999.0,  999.0,  999.0,   -3.0,   -2.7,  999.0,  999.0,  999.0,  999.0,   24.7,  999.0,  999.0,  999.0
2000/11/07 19:40,   17.1,   23.1,  999.0,   20.8,   10.3,    8.3,    6.3,    3.0,    0.9,   -0.7,  999.0,  999.0,   -5.6,  999.0,  999.0,    0.7,  999.0,  999.0,  999.0,  999.0,  999.0,  999.0,  999.0,  999.0,  999.0,    0.4,  999.0,  999.0,  999.0,  999.0,  999.0,  999.0,  999.0,  -10.4,   -9.2,  999.0,   -8.3,  999.0,  999.0,  999.0,   -5.7,   -4.2,   -3.7,    2.7,  999.0,   -1.9,   -3.3,   -2.0,  999.0,  999.0,   -0.5,   -0.5,   -0.4,    0.3,  999.0,   -0.6,  999.0,   -0.7
2000/11/07 19:50,   21.4,   17.1,   12.6,   11.5,    6.5,    4.2,    3.6,   -1.2,   -1.8,   -5.5,  -10.0,   -3.5,   -1.4,   -3.5,   -9.3,  -10.5,  -11.9,  999.0,  999.0,  999.0,  999.0,  999.0,  999.0,  999.0,   -0.8,  999.0,  999.0,  999.0,  -13.4,  999.0,  999.0,  -12.9,  999.0,  999.0,  -11.0,   -9.3,  999.0,   -8.0,   -7.0,   -6.4,   -6.5,   -5.0,  999.0,   -3.4,  999.0,   -1.7,  999.0,   -0.3,   -0.0,   -1.7,   -0.7,   -1.0,   -0.7,   -0.1,  999.0,  999.0,  999.0,   -1.1
2000/11/07 20:00,   19.7,   18.4,   11.2,    8.4,    7.7,    2.3,   -4.5,  999.0,   -4.1,  999.0,   -0.8,   -5.4,  999.0,  999.0,  999.0,   -3.2,  -11.6,   -6.9,  -21.1,  -19.9,   -0.1,  999.0,  -16.0,  -14.9,  -13.7,  999.0,  999.0,  -15.2,   -8.7,   -7.5,  999.0,   -9.8,   -3.8,  -13.5,  999.0,  -12.6,  -13.1,  -10.7,  -10.1,   -4.8,   -8.3,   -9.6,   -3.6,   -1.0,   -2.7,   -0.8,  999.0,   -1.1,   -1.7,   -1.2,   -1.9,   -2.0,   -0.9,   -0.9,   -0.7,   -0.9,   -0.6,   -0.7
2000/11/07 20:10,   20.3,  999.0,  999.0,    7.9,    4.4,    3.4,   -1.7,   -2.1,   -2.9,   -5.6,   -3.1,   -5.1,   -7.4,    1.5,  999.0,   -4.2,  999.0,   -7.3,  999.0,  999.0,  999.0,  999.0,  999.0,  999.0,  999.0,  999.0,  999.0,  999.0,  -13.9,  -14.2,  -12.1,  999.0,  -11.2,   -9.7,  999.0,  999.0,  999.0,  999.0,   -7.1,   -5.1,   -5.8,   -4.8,   -6.8,   -3.7,   -1.8,   -1.6,   -1.6,   -3.9,   -1.0,   -1.6,   -0.1,   -0.9,    0.2,   -0.3,   -0.7,   -0.6,   -0.9,   -0.9
2000/11/07 20:20,   19.3,  999.0,  999.0,    9.0,    1.6,   -2.7,   -5.8,   -2.1,   -3.2,    0.9,  999.0,  999.0,   -8.2,   -3.4,  999.0,  999.0,  999.0,  999.0,  999.0,  999.0,  999.0,  999.0,  999.0,  999.0,  999.0,  -19.9,  -15.5,  -13.5,  -14.2,  -12.9,  -12.9,  999.0,  -12.2,   -9.5,  999.0,  999.0,   -8.6,   -6.6,  999.0,   -4.6,  999.0,   -1.7,   -0.8,   -0.4,  999.0,   -0.2,   -0.3,   -0.5,   -0.4,   -0.0,   -0.5,   -0.9,   -0.5,   -0.2,    0.1,   -0.6,   -0.5,  999.0
2000/11/07 20:30,  999.0,   24.0,  999.0,  999.0,   15.2,  999.0,    1.0,    0.8,   -0.6,    1.6,  999.0,   -1.2,   -2.0,   -5.0,   -8.7,   -7.4,  999.0,  999.0,  999.0,  999.0,  999.0,    8.5,  999.0,  999.0,  999.0,  999.0,  999.0,    4.2,  -11.5,  999.0,   -9.6,  999.0,  999.0,   -6.2,   -5.4,  999.0,   -3.8,   -3.6,   -3.5,   -1.4,   -0.7,   -1.3,   -0.3,   -1.1,  999.0,   -1.1,  999.0,   -1.2,   -0.9,   -0.3,   -0.7,  999.0,   -1.0,    0.3,   -1.4,   -0.6,  999.0,  999.0
2000/11/07 20:40,   16.5,    7.5,    9.7,    7.8,    3.6,   -2.2,    0.6,   -1.6,   -4.6,   -3.7,  999.0,  999.0,   -7.8,   -0.9,  -11.2,    0.7,  999.0,  999.0,  999.0,  999.0,  999.0,  -10.4,  999.0,  999.0,    7.4,    4.7,  999.0,  999.0,  999.0,  -12.3,   -5.6,   12.0,   -9.1,  999.0,   -5.1,   -4.8,   -3.5,  999.0,   -4.3,   -0.4,   -0.2,   -0.8,  999.0,   -0.3,  999.0,   -0.7,   -0.9,   -1.2,   -0.9,  999.0,   -1.6,   -0.6,   -1.0,   -1.3,  999.0,   -0.9,    0.6,  999.0
2000/11/07 20:50,   20.2,   19.4,   15.2,   14.6,   13.1,   14.2,   -6.4,   -0.4,    0.2,   -1.1,   -2.3,   -1.8,  999.0,  999.0,  999.0,  999.0,  999.0,  999.0,  999.0,  999.0,  999.0,  999.0,  999.0,  999.0,  999.0,  -12.9,  999.0,  -10.3,  -10.8,  -11.3,   -9.4,   -8.8,   -7.4,   -5.8,   -4.8,   -4.2,   -3.2,   -2.1,  999.0,   -2.0,   -0.5,   -0.6,   -0.8,   -0.2,   -0.5,   -1.0,  999.0,   -0.4,   -0.7,   -0.8,   -0.2,   -1.3,   -0.6,   -1.1,   -0.2,   -0.8,   -0.8,   -0.8
2000/11/07 21:00,  999.0,  999.0,  999.0,    4.5,    2.7,    3.6,    2.2,  999.0,   -3.1,   -2.6,  999.0,  999.0,   -4.1,   -3.6,   -7.6,  -10.1,  999.0,  999.0,  999.0,  999.0,  999.0,  999.0,  999.0,  999.0,  999.0,  999.0,   13.3,   14.6,  999.0,  999.0,  999.0,   -3.5,  999.0,  999.0,  999.0,   -4.1,   -1.6,  999.0,   -1.2,   -1.7,  999.0,   -0.9,  999.0,  999.0,  999.0,  999.0,   -0.1,   -0.8,  999.0,  999.0,   -0.7,  999.0,  999.0,  999.0,   -0.4,   -0.3,  999.0,  999.0
2000/11/07 21:10,   18.1,  999.0,  999.0,    3.9,    1.9,    1.1,  999.0,  999.0,    0.2,    2.9,  999.0,   -0.7,  999.0,  999.0,  999.0,  999.0,  999.0,  999.0,  999.0,  999.0,  999.0,  999.0,  999.0,  999.0,  999.0,  999.0,  999.0,  999.0,  999.0,  999.0,  999.0,  999.0,  999.0,  999.0,  999.0,  999.0,  999.0,  999.0,  999.0,  999.0,  999.0,  999.0,  999.0,  999.0,  999.0,  999.0,  999.0,  999.0,  999.0,  999.0,  999.0,  999.0,  999.0,  999.0,  999.0,  999.0,  999.0,  999.0
2000/11/07 21:20,   16.5,   10.9,    5.7,    3.6,   -0.5,    2.7,   -0.5,  999.0,    0.1,  999.0,  999.0,   -1.0,  999.0,   -0.6,  999.0,  999.0,  999.0,  999.0,    2.7,  999.0,  999.0,  999.0,  999.0,  999.0,  999.0,  999.0,  999.0,  999.0,  999.0,  999.0,  999.0,  999.0,  999.0,  999.0,  999.0,  999.0,  999.0,  999.0,  999.0,  999.0,  999.0,  999.0,  999.0,  999.0,  999.0,  999.0,  999.0,  999.0,  999.0,  999.0,  999.0,  999.0,  999.0,  999.0,  999.0,  999.0,  999.0,  999.0
2000/11/07 21:30,   19.8,  999.0,   13.0,   12.4,   10.5,  999.0,    8.6,    3.1,  999.0,   -3.1,  999.0,    1.6,  999.0,    0.2,  999.0,  999.0,  999.0,  999.0,  999.0,  999.0,  999.0,  999.0,  999.0,  999.0,  999.0,    7.4,  999.0,  999.0,  999.0,  999.0,  999.0,   13.9,  999.0,  999.0,  999.0,  999.0,  999.0,  999.0,  999.0,  999.0,  999.0,  999.0,  999.0,  999.0,  999.0,  999.0,  999.0,  999.0,  999.0,  999.0,  999.0,  999.0,  999.0,  999.0,  999.0,  999.0,  999.0,  999.0
2000/11/07 21:40,   18.1,  999.0,   14.0,  999.0,    9.0,  999.0,  999.0,  999.0,   -3.1,  999.0,    2.3,  999.0,  999.0,  999.0,  999.0,  999.0,  999.0,  999.0,  999.0,  999.0,  999.0,  999.0,  999.0,  999.0,  999.0,  999.0,   10.5,   13.4,   10.6,   11.3,  999.0,  999.0,  999.0,  999.0,  999.0,  999.0,  999.0,  999.0,  999.0,  999.0,  999.0,  999.0,  999.0,  999.0,  999.0,  999.0,  999.0,  999.0,  999.0,  999.0,  999.0,  999.0,  999.0,  999.0,  999.0,  999.0,  999.0,  999.0
2000/11/07 21:50,   17.7,  999.0,   11.1,    8.9,  999.0,    4.3,    0.1,    1.2,    0.2,   -0.5,  999.0,  999.0,   -0.1,    1.4,  999.0,  999.0,  999.0,  999.0,  999.0,  999.0,  999.0,    3.0,  999.0,  999.0,  999.0,    7.6,  999.0,  999.0,  999.0,  999.0,  999.0,  999.0,  999.0,  999.0,   14.6,  999.0,   17.3,  999.0,  999.0,  999.0,  999.0,  999.0,  999.0,  999.0,  999.0,  999.0,  999.0,  999.0,  999.0,  999.0,  999.0,  999.0,  999.0,  999.0,  999.0,  999.0,  999.0,   21.4
2000/11/07 22:00,   19.9,  999.0,  999.0,    5.9,   -0.1,   -4.5,   -1.2,   -0.2,  999.0,   -4.1,  999.0,   -4.2,  999.0,  999.0,  999.0,    0.3,  999.0,  999.0,  999.0,  999.0,  999.0,    3.2,    4.3,  999.0,  999.0,  999.0,  999.0,  999.0,  999.0,  999.0,  999.0,  999.0,  999.0,  999.0,  999.0,  999.0,  999.0,  999.0,  999.0,  999.0,  999.0,  999.0,  999.0,   21.4,  999.0,  999.0,  999.0,  999.0,   21.7,  999.0,  999.0,  999.0,  999.0,   20.8,  999.0,  999.0,  999.0,  999.0
2000/11/07 22:10,   16.5,  999.0,    8.6,    4.9,    5.0,    1.2,    2.8,    0.3,   -0.4,    1.7,  999.0,  999.0,  999.0,   -2.4,   -3.5,  999.0,    1.9,    2.5,    1.6,  999.0,    0.2,    2.6,  999.0,  999.0,  999.0,  999.0,  999.0,  999.0,  999.0,  999.0,  999.0,  999.0,  999.0,  999.0,  999.0,  999.0,  999.0,  999.0,  999.0,  999.0,  999.0,  999.0,  999.0,  999.0,  999.0,  999.0,  999.0,  999.0,  999.0,  999.0,  999.0,  999.0,  999.0,  999.0,  999.0,  999.0,  999.0,  999.0
2000/11/07 22:20,   14.6,  999.0,  999.0,    0.7,    3.5,    2.5,    6.0,    3.3,    1.7,    4.1,    2.4,  999.0,  999.0,  999.0,  999.0,  999.0,  999.0,  999.0,  999.0,    6.7,  999.0,  999.0,  999.0,  999.0,  999.0,  999.0,  999.0,  999.0,  999.0,  999.0,  999.0,  999.0,   19.0,  999.0,  999.0,  999.0,  999.0,  999.0,  999.0,  999.0,  999.0,  999.0,  999.0,  999.0,  999.0,  999.0,  999.0,  999.0,  999.0,  999.0,  999.0,  999.0,  999.0,  999.0,  999.0,  999.0,  999.0,  999.0
2000/11/07 22:30,  999.0,   14.8,    9.2,  999.0,    0.5,  999.0,    3.3,  999.0,    1.9,    1.5,    0.4,  999.0,   -0.5,  999.0,  999.0,  999.0,  999.0,  999.0,  999.0,  999.0,    5.4,  999.0,    6.2,    7.0,  999.0,  999.0,  999.0,  999.0,  999.0,   12.4,   13.4,  999.0,  999.0,  999.0,  999.0,  999.0,  999.0,  999.0,  999.0,  999.0,  999.0,  999.0,  999.0,  999.0,  999.0,  999.0,  999.0,  999.0,  999.0,  999.0,  999.0,  999.0,  999.0,  999.0,  999.0,  999.0,  999.0,  999.0
2000/11/07 22:40,   19.0,  999.0,    3.3,    2.2,    2.7,  999.0,   -0.8,  999.0,   -1.3,  999.0,    1.6,  999.0,    3.3,  999.0,   -4.8,  999.0,    4.7,    1.8,  999.0,  999.0,  999.0,  999.0,   12.1,  999.0,  999.0,   10.6,  999.0,   10.1,    9.9,   13.1,  999.0,  999.0,  999.0,  999.0,  999.0,  999.0,  999.0,  999.0,  999.0,  999.0,  999.0,  999.0,  999.0,  999.0,  999.0,  999.0,  999.0,  999.0,  999.0,  999.0,  999.0,  999.0,  999.0,  999.0,  999.0,  999.0,  999.0,  999.0
2000/11/07 22:50,   15.9,  999.0,   11.3,  999.0,    6.7,   -0.8,   -1.8,   -1.8,    0.3,   -3.1,  999.0,  999.0,  999.0,  999.0,    0.2,  999.0,    2.8,  999.0,    4.1,  999.0,  999.0,  999.0,  999.0,  999.0,  999.0,  999.0,  999.0,  999.0,  999.0,  999.0,  999.0,  999.0,  999.0,  999.0,  999.0,  999.0,  999.0,  999.0,  999.0,  999.0,  999.0,  999.0,  999.0,  999.0,  999.0,  999.0,  999.0,  999.0,  999.0,  999.0,  999.0,  999.0,  999.0,   41.0,  999.0,  999.0,  999.0,  999.0
2000/11/07 23:00,   17.4,   12.2,    7.2,    1.9,    0.3,   -2.9,   -0.7,  999.0,  999.0,  999.0,   -1.4,  999.0,   -1.4,   -1.7,   -1.9,  999.0,  999.0,  999.0,  999.0,  999.0,    6.3,  999.0,  999.0,  999.0,  999.0,  999.0,  999.0,  999.0,  999.0,  999.0,  999.0,  999.0,  999.0,  999.0,  999.0,  999.0,  999.0,  999.0,  999.0,  999.0,  999.0,  999.0,  999.0,  999.0,  999.0,  999.0,  999.0,  999.0,  999.0,  999.0,  999.0,  999.0,  999.0,  999.0,  999.0,  999.0,  999.0,  999.0
2000/11/07 23:10,   15.0,   12.0,    7.8,    4.3,   -2.3,    0.5,    2.1,    0.5,    2.7,  999.0,    0.4,  999.0,   -1.3,   -1.4,  999.0,  999.0,  999.0,    0.2,  999.0,  999.0,  999.0,    1.7,  999.0,  999.0,  999.0,  999.0,  999.0,  999.0,  999.0,  999.0,  999.0,  999.0,  999.0,  999.0,  999.0,  999.0,  999.0,  999.0,  999.0,  999.0,  999.0,  999.0,  999.0,  999.0,  999.0,  999.0,  999.0,  999.0,  999.0,  999.0,  999.0,  999.0,  999.0,  999.0,  999.0,  999.0,  999.0,  999.0
2000/11/07 23:20,   18.1,   12.9,  999.0,    8.5,    1.0,    1.9,  999.0,  999.0,  999.0,  999.0,  999.0,  999.0,   -1.9,    0.4,  999.0,  999.0,  999.0,  999.0,  999.0,  999.0,    4.4,    4.6,   11.5,  999.0,  999.0,  999.0,  999.0,  999.0,  999.0,  999.0,   13.2,  999.0,  999.0,  999.0,  999.0,  999.0,  999.0,  999.0,  999.0,  999.0,  999.0,  999.0,  999.0,  999.0,  999.0,  999.0,  999.0,  999.0,  999.0,  999.0,  999.0,  999.0,  999.0,   41.2,  999.0,  999.0,  999.0,  999.0
2000/11/07 23:30,   12.3,  999.0,  999.0,   -0.1,    0.5,    2.4,    2.1,  999.0,    0.8,  999.0,  999.0,  999.0,  999.0,   -4.6,  999.0,  999.0,  999.0,   -2.7,   10.3,    9.8,  999.0,  999.0,  999.0,  999.0,  999.0,  999.0,    6.2,  999.0,  999.0,    7.1,  999.0,  999.0,  999.0,  999.0,  999.0,  999.0,  999.0,  999.0,  999.0,  999.0,   18.9,  999.0,  999.0,  999.0,  999.0,  999.0,  999.0,  999.0,  999.0,  999.0,  999.0,  999.0,  999.0,  999.0,  999.0,  999.0,  999.0,  999.0
2000/11/07 23:40,   16.8,  999.0,    2.1,  999.0,    1.2,    3.6,    4.4,  999.0,   -1.7,    0.2,  999.0,  999.0,  999.0,  999.0,    0.3,  999.0,  999.0,   -0.4,  999.0,  999.0,    7.6,  999.0,   10.6,   10.2,  999.0,  999.0,    7.7,  999.0,   10.8,  999.0,  999.0,  999.0,  999.0,  999.0,  999.0,   23.8,  999.0,  999.0,  999.0,  999.0,  999.0,  999.0,  999.0,  999.0,  999.0,  999.0,  999.0,  999.0,  999.0,  999.0,  999.0,  999.0,  999.0,  999.0,  999.0,  999.0,  999.0,  999.0
2000/11/07 23:50,   14.4,    9.4,    2.7,    3.3,    0.2,    0.0,    2.7,   -0.8,    0.1,   -0.7,   -1.3,   -1.5,  999.0,  999.0,  999.0,  999.0,  999.0,    2.5,  999.0,  999.0,  999.0,  999.0,  999.0,  999.0,  999.0,  999.0,  999.0,  999.0,  999.0,  999.0,  999.0,  999.0,  999.0,  999.0,  999.0,  999.0,  999.0,  999.0,  999.0,  999.0,  999.0,  999.0,  999.0,  999.0,  999.0,  999.0,  999.0,  999.0,  999.0,  999.0,  999.0,  999.0,  999.0,  999.0,  999.0,  999.0,  999.0,  999.0
